Wetterdaten: Samstag, 07.12.2019
Datum Zeit Temp. Aussen Temp. o. S. Temp +5cm Feuchte Auss Luftdruck Regen Sonnenschein Regendauer Solar Windben Empfang
07.12.2019 00:00 8,2 C 7,2 C 6,7 C 97 % 1006,1 hPa 0,0 l/m 0 min 2 min 0 W/m 45,1 km/h (6 Bft) 97,87 %
07.12.2019 00:02 8,2 C 7,2 C 6,7 C 97 % 1006,1 hPa 0,0 l/m 0 min 2 min 0 W/m 29,0 km/h (5 Bft) 97,73 %
07.12.2019 00:04 8,2 C 7,2 C 6,7 C 97 % 1006,1 hPa 0,0 l/m 0 min 2 min 0 W/m 29,0 km/h (5 Bft) 97,87 %
07.12.2019 00:08 8,2 C 7,2 C 6,7 C 97 % 1006,0 hPa 0,0 l/m 0 min 4 min 0 W/m 32,2 km/h (5 Bft) 96,77 %
07.12.2019 00:10 8,2 C 7,2 C 6,7 C 97 % 1006,0 hPa 0,0 l/m 0 min 2 min 0 W/m 25,7 km/h (4 Bft) 97,87 %
07.12.2019 00:12 8,3 C 7,2 C 6,7 C 97 % 1006,1 hPa 0,0 l/m 0 min 2 min 0 W/m 32,2 km/h (5 Bft) 97,87 %
07.12.2019 00:14 8,3 C 7,2 C 6,7 C 97 % 1006,0 hPa 0,0 l/m 0 min 2 min 0 W/m 35,4 km/h (5 Bft) 97,87 %
07.12.2019 00:16 8,3 C 7,2 C 6,7 C 97 % 1006,0 hPa 0,0 l/m 0 min 2 min 0 W/m 22,5 km/h (4 Bft) 97,87 %
07.12.2019 00:18 8,3 C 7,2 C 6,7 C 97 % 1006,1 hPa 0,0 l/m 0 min 0 min 0 W/m 22,5 km/h (4 Bft) 95,65 %
07.12.2019 00:20 8,3 C 7,2 C 6,7 C 97 % 1006,1 hPa 0,0 l/m 0 min 2 min 0 W/m 12,9 km/h (3 Bft) 93,62 %
07.12.2019 00:22 8,3 C 7,2 C 6,7 C 97 % 1006,2 hPa 0,0 l/m 0 min 2 min 0 W/m 16,1 km/h (3 Bft) 95,74 %
07.12.2019 00:24 8,3 C 7,2 C 6,7 C 97 % 1006,2 hPa 0,0 l/m 0 min 2 min 0 W/m 29,0 km/h (5 Bft) 95,74 %
07.12.2019 00:26 8,3 C 7,2 C 6,7 C 97 % 1006,2 hPa 0,0 l/m 0 min 2 min 0 W/m 29,0 km/h (5 Bft) 95,74 %
07.12.2019 00:28 8,3 C 7,2 C 6,7 C 97 % 1006,2 hPa 0,0 l/m 0 min 2 min 0 W/m 22,5 km/h (4 Bft) 95,74 %
07.12.2019 00:30 8,3 C 7,2 C 6,7 C 97 % 1006,4 hPa 0,0 l/m 0 min 2 min 0 W/m 22,5 km/h (4 Bft) 95,65 %
07.12.2019 00:32 8,3 C 7,2 C 6,7 C 97 % 1006,3 hPa 0,2 l/m 0 min 2 min 0 W/m 22,5 km/h (4 Bft) 95,74 %
07.12.2019 00:34 8,3 C 7,2 C 6,7 C 97 % 1006,2 hPa 0,0 l/m 0 min 2 min 0 W/m 22,5 km/h (4 Bft) 93,62 %
07.12.2019 00:36 8,4 C 7,2 C 6,7 C 97 % 1006,3 hPa 0,0 l/m 0 min 2 min 0 W/m 38,6 km/h (5 Bft) 93,62 %
07.12.2019 00:38 8,4 C 7,2 C 6,7 C 97 % 1006,3 hPa 0,0 l/m 0 min 2 min 0 W/m 32,2 km/h (5 Bft) 95,74 %
07.12.2019 00:40 8,4 C 7,2 C 6,7 C 97 % 1006,3 hPa 0,0 l/m 0 min 2 min 0 W/m 16,1 km/h (3 Bft) 93,48 %
07.12.2019 00:42 8,4 C 7,2 C 6,7 C 97 % 1006,2 hPa 0,0 l/m 0 min 2 min 0 W/m 12,9 km/h (3 Bft) 95,74 %
07.12.2019 00:44 8,4 C 7,2 C 6,7 C 97 % 1006,4 hPa 0,0 l/m 0 min 2 min 0 W/m 22,5 km/h (4 Bft) 93,62 %
07.12.2019 00:46 8,4 C 7,2 C 6,7 C 97 % 1006,3 hPa 0,2 l/m 0 min 2 min 0 W/m 25,7 km/h (4 Bft) 95,74 %
07.12.2019 00:48 8,4 C 7,2 C 6,7 C 97 % 1006,3 hPa 0,0 l/m 0 min 2 min 0 W/m 22,5 km/h (4 Bft) 95,74 %
07.12.2019 00:50 8,4 C 7,2 C 6,7 C 97 % 1006,5 hPa 0,0 l/m 0 min 2 min 0 W/m 25,7 km/h (4 Bft) 93,62 %
07.12.2019 00:52 8,4 C 7,2 C 6,7 C 97 % 1006,5 hPa 0,0 l/m 0 min 2 min 0 W/m 25,7 km/h (4 Bft) 95,65 %
07.12.2019 00:54 8,4 C 7,2 C 6,7 C 97 % 1006,4 hPa 0,0 l/m 0 min 2 min 0 W/m 16,1 km/h (3 Bft) 95,74 %
07.12.2019 00:56 8,4 C 7,2 C 6,7 C 97 % 1006,5 hPa 0,0 l/m 0 min 2 min 0 W/m 32,2 km/h (5 Bft) 95,74 %
07.12.2019 00:58 8,4 C 7,2 C 6,7 C 97 % 1006,5 hPa 0,0 l/m 0 min 2 min 0 W/m 29,0 km/h (5 Bft) 95,74 %
07.12.2019 01:00 8,4 C 7,2 C 6,7 C 97 % 1006,5 hPa 0,2 l/m 0 min 2 min 0 W/m 19,3 km/h (3 Bft) 97,87 %
07.12.2019 01:02 8,4 C 7,2 C 6,7 C 97 % 1006,5 hPa 0,0 l/m 0 min 2 min 0 W/m 16,1 km/h (3 Bft) 100,00 %
07.12.2019 01:04 8,4 C 7,2 C 6,7 C 97 % 1006,6 hPa 0,0 l/m 0 min 2 min 0 W/m 19,3 km/h (3 Bft) 95,65 %
07.12.2019 01:06 8,4 C 7,2 C 6,7 C 97 % 1006,7 hPa 0,0 l/m 0 min 2 min 0 W/m 12,9 km/h (3 Bft) 95,74 %
07.12.2019 01:08 8,4 C 7,2 C 6,7 C 97 % 1006,7 hPa 0,2 l/m 0 min 2 min 0 W/m 22,5 km/h (4 Bft) 97,87 %
07.12.2019 01:10 8,4 C 7,2 C 6,7 C 97 % 1006,6 hPa 0,0 l/m 0 min 2 min 0 W/m 22,5 km/h (4 Bft) 100,00 %
07.12.2019 01:12 8,4 C 7,2 C 6,7 C 97 % 1006,6 hPa 0,0 l/m 0 min 2 min 0 W/m 19,3 km/h (3 Bft) 97,87 %
07.12.2019 01:14 8,4 C 7,2 C 6,7 C 98 % 1006,7 hPa 0,0 l/m 0 min 2 min 0 W/m 16,1 km/h (3 Bft) 93,62 %
07.12.2019 01:16 8,5 C 7,2 C 6,7 C 98 % 1006,6 hPa 0,0 l/m 0 min 2 min 0 W/m 16,1 km/h (3 Bft) 97,83 %
07.12.2019 01:18 8,5 C 7,2 C 6,7 C 98 % 1006,7 hPa 0,0 l/m 0 min 2 min 0 W/m 35,4 km/h (5 Bft) 97,87 %
07.12.2019 01:20 8,5 C 7,2 C 6,7 C 98 % 1006,7 hPa 0,2 l/m 0 min 2 min 0 W/m 19,3 km/h (3 Bft) 97,87 %
07.12.2019 01:22 8,5 C 7,2 C 6,7 C 98 % 1006,7 hPa 0,0 l/m 0 min 2 min 0 W/m 19,3 km/h (3 Bft) 97,87 %
07.12.2019 01:24 8,5 C 7,2 C 6,7 C 98 % 1006,6 hPa 0,0 l/m 0 min 2 min 0 W/m 22,5 km/h (4 Bft) 97,87 %
07.12.2019 01:26 8,5 C 7,2 C 6,7 C 98 % 1006,8 hPa 0,0 l/m 0 min 2 min 0 W/m 19,3 km/h (3 Bft) 97,87 %
07.12.2019 01:28 8,6 C 7,2 C 6,7 C 98 % 1006,7 hPa 0,0 l/m 0 min 2 min 0 W/m 25,7 km/h (4 Bft) 97,83 %
07.12.2019 01:30 8,6 C 7,2 C 6,7 C 98 % 1006,7 hPa 0,0 l/m 0 min 2 min 0 W/m 19,3 km/h (3 Bft) 97,87 %
07.12.2019 01:32 8,6 C 7,2 C 6,7 C 98 % 1006,8 hPa 0,0 l/m 0 min 2 min 0 W/m 32,2 km/h (5 Bft) 97,87 %
07.12.2019 01:34 8,6 C 7,2 C 6,7 C 98 % 1006,7 hPa 0,2 l/m 0 min 2 min 0 W/m 19,3 km/h (3 Bft) 97,87 %
07.12.2019 01:36 8,6 C 7,2 C 6,7 C 98 % 1006,8 hPa 0,0 l/m 0 min 2 min 0 W/m 16,1 km/h (3 Bft) 97,87 %
07.12.2019 01:38 8,6 C 7,2 C 6,7 C 98 % 1006,8 hPa 0,0 l/m 0 min 2 min 0 W/m 16,1 km/h (3 Bft) 97,83 %
07.12.2019 01:40 8,6 C 7,2 C 6,7 C 98 % 1006,8 hPa 0,0 l/m 0 min 2 min 0 W/m 25,7 km/h (4 Bft) 97,87 %
07.12.2019 01:42 8,6 C 7,2 C 6,7 C 98 % 1006,8 hPa 0,0 l/m 0 min 2 min 0 W/m 12,9 km/h (3 Bft) 97,87 %
07.12.2019 01:44 8,6 C 7,2 C 6,7 C 98 % 1006,9 hPa 0,0 l/m 0 min 2 min 0 W/m 22,5 km/h (4 Bft) 97,87 %
07.12.2019 01:46 8,6 C 7,2 C 6,7 C 98 % 1006,8 hPa 0,0 l/m 0 min 2 min 0 W/m 16,1 km/h (3 Bft) 95,74 %
07.12.2019 01:48 8,6 C 7,2 C 6,7 C 98 % 1006,9 hPa 0,2 l/m 0 min 2 min 0 W/m 16,1 km/h (3 Bft) 97,87 %
07.12.2019 01:50 8,6 C 7,2 C 6,7 C 98 % 1006,8 hPa 0,0 l/m 0 min 2 min 0 W/m 12,9 km/h (3 Bft) 97,83 %
07.12.2019 01:52 8,6 C 7,2 C 6,7 C 98 % 1007,0 hPa 0,0 l/m 0 min 2 min 0 W/m 12,9 km/h (3 Bft) 97,87 %
07.12.2019 01:54 8,6 C 7,2 C 6,7 C 98 % 1007,0 hPa 0,0 l/m 0 min 2 min 0 W/m 16,1 km/h (3 Bft) 97,87 %
07.12.2019 01:56 8,6 C 7,2 C 6,7 C 98 % 1007,0 hPa 0,0 l/m 0 min 2 min 0 W/m 22,5 km/h (4 Bft) 97,87 %
07.12.2019 01:58 8,6 C 7,2 C 6,7 C 98 % 1006,9 hPa 0,0 l/m 0 min 2 min 0 W/m 16,1 km/h (3 Bft) 97,87 %
07.12.2019 02:00 8,6 C 7,2 C 6,7 C 98 % 1007,0 hPa 0,0 l/m 0 min 2 min 0 W/m 19,3 km/h (3 Bft) 97,87 %
07.12.2019 02:02 8,6 C 7,2 C 6,7 C 98 % 1007,1 hPa 0,2 l/m 0 min 2 min 0 W/m 12,9 km/h (3 Bft) 97,83 %
07.12.2019 02:04 8,6 C 7,2 C 6,7 C 98 % 1007,1 hPa 0,0 l/m 0 min 2 min 0 W/m 12,9 km/h (3 Bft) 97,87 %
07.12.2019 02:06 8,6 C 7,2 C 6,7 C 98 % 1007,1 hPa 0,2 l/m 0 min 2 min 0 W/m 25,7 km/h (4 Bft) 100,00 %
07.12.2019 02:08 8,6 C 7,2 C 6,7 C 98 % 1007,0 hPa 0,0 l/m 0 min 2 min 0 W/m 16,1 km/h (3 Bft) 95,74 %
07.12.2019 02:10 8,6 C 7,2 C 6,7 C 98 % 1007,2 hPa 0,0 l/m 0 min 2 min 0 W/m 16,1 km/h (3 Bft) 100,00 %
07.12.2019 02:12 8,6 C 7,2 C 6,7 C 98 % 1007,2 hPa 0,0 l/m 0 min 2 min 0 W/m 19,3 km/h (3 Bft) 100,00 %
07.12.2019 02:14 8,6 C 7,2 C 6,7 C 98 % 1007,2 hPa 0,0 l/m 0 min 2 min 0 W/m 25,7 km/h (4 Bft) 100,00 %
07.12.2019 02:16 8,6 C 7,2 C 6,7 C 98 % 1007,2 hPa 0,2 l/m 0 min 2 min 0 W/m 19,3 km/h (3 Bft) 100,00 %
07.12.2019 02:18 8,6 C 7,2 C 6,7 C 98 % 1007,3 hPa 0,0 l/m 0 min 2 min 0 W/m 19,3 km/h (3 Bft) 100,00 %
07.12.2019 02:20 8,6 C 7,2 C 6,7 C 98 % 1007,4 hPa 0,0 l/m 0 min 2 min 0 W/m 19,3 km/h (3 Bft) 100,00 %
07.12.2019 02:22 8,6 C 7,2 C 6,7 C 98 % 1007,3 hPa 0,0 l/m 0 min 2 min 0 W/m 19,3 km/h (3 Bft) 100,00 %
07.12.2019 02:24 8,6 C 7,2 C 6,7 C 98 % 1007,4 hPa 0,0 l/m 0 min 2 min 0 W/m 16,1 km/h (3 Bft) 100,00 %
07.12.2019 02:26 8,6 C 7,2 C 6,7 C 98 % 1007,5 hPa 0,0 l/m 0 min 0 min 0 W/m 16,1 km/h (3 Bft) 97,87 %
07.12.2019 02:28 8,6 C 7,2 C 7,2 C 98 % 1007,3 hPa 0,0 l/m 0 min 0 min 0 W/m 19,3 km/h (3 Bft) 97,83 %
07.12.2019 02:30 8,6 C 7,8 C 7,2 C 98 % 1007,5 hPa 0,0 l/m 0 min 0 min 0 W/m 22,5 km/h (4 Bft) 100,00 %
07.12.2019 02:32 8,6 C 7,8 C 7,2 C 98 % 1007,6 hPa 0,0 l/m 0 min 0 min 0 W/m 12,9 km/h (3 Bft) 97,87 %
07.12.2019 02:34 8,7 C 7,8 C 7,2 C 98 % 1007,7 hPa 0,0 l/m 0 min 0 min 0 W/m 16,1 km/h (3 Bft) 100,00 %
07.12.2019 02:36 8,6 C 7,8 C 7,2 C 98 % 1007,6 hPa 0,0 l/m 0 min 0 min 0 W/m 19,3 km/h (3 Bft) 97,87 %
07.12.2019 02:38 8,7 C 7,8 C 7,2 C 98 % 1007,7 hPa 0,0 l/m 0 min 0 min 0 W/m 16,1 km/h (3 Bft) 100,00 %
07.12.2019 02:40 8,7 C 7,8 C 7,2 C 98 % 1007,7 hPa 0,0 l/m 0 min 0 min 0 W/m 16,1 km/h (3 Bft) 97,83 %
07.12.2019 02:42 8,6 C 7,8 C 7,2 C 98 % 1007,6 hPa 0,0 l/m 0 min 0 min 0 W/m 19,3 km/h (3 Bft) 100,00 %
07.12.2019 02:44 8,6 C 7,8 C 7,2 C 98 % 1007,7 hPa 0,0 l/m 0 min 0 min 0 W/m 12,9 km/h (3 Bft) 100,00 %
07.12.2019 02:46 8,6 C 7,8 C 7,2 C 98 % 1007,7 hPa 0,0 l/m 0 min 0 min 0 W/m 16,1 km/h (3 Bft) 100,00 %
07.12.2019 02:48 8,6 C 7,8 C 7,2 C 98 % 1007,7 hPa 0,0 l/m 0 min 0 min 0 W/m 19,3 km/h (3 Bft) 100,00 %
07.12.2019 02:50 8,6 C 7,8 C 7,2 C 98 % 1007,7 hPa 0,0 l/m 0 min 0 min 0 W/m 16,1 km/h (3 Bft) 97,87 %
07.12.2019 02:52 8,6 C 7,8 C 7,2 C 98 % 1007,7 hPa 0,0 l/m 0 min 0 min 0 W/m 22,5 km/h (4 Bft) 97,83 %
07.12.2019 02:54 8,6 C 7,8 C 7,2 C 98 % 1007,8 hPa 0,0 l/m 0 min 0 min 0 W/m 12,9 km/h (3 Bft) 97,87 %
07.12.2019 02:56 8,6 C 7,8 C 7,2 C 98 % 1007,8 hPa 0,0 l/m 0 min 0 min 0 W/m 19,3 km/h (3 Bft) 97,87 %
07.12.2019 02:58 8,6 C 7,8 C 7,2 C 98 % 1007,9 hPa 0,0 l/m 0 min 2 min 0 W/m 12,9 km/h (3 Bft) 95,74 %
07.12.2019 03:00 8,6 C 7,2 C 7,2 C 98 % 1008,0 hPa 0,0 l/m 0 min 2 min 0 W/m 16,1 km/h (3 Bft) 97,87 %
07.12.2019 03:02 8,6 C 7,2 C 7,2 C 98 % 1007,9 hPa 0,0 l/m 0 min 2 min 0 W/m 19,3 km/h (3 Bft) 95,74 %
07.12.2019 03:04 8,6 C 7,2 C 6,7 C 98 % 1008,0 hPa 0,0 l/m 0 min 2 min 0 W/m 16,1 km/h (3 Bft) 97,83 %
07.12.2019 03:06 8,7 C 7,2 C 7,2 C 98 % 1008,1 hPa 0,0 l/m 0 min 2 min 0 W/m 19,3 km/h (3 Bft) 97,87 %
07.12.2019 03:08 8,6 C 7,2 C 7,2 C 98 % 1008,0 hPa 0,2 l/m 0 min 2 min 0 W/m 12,9 km/h (3 Bft) 97,87 %
07.12.2019 03:10 8,6 C 7,2 C 6,7 C 98 % 1008,1 hPa 0,0 l/m 0 min 2 min 0 W/m 16,1 km/h (3 Bft) 96,36 %
07.12.2019 03:12 8,6 C 7,2 C 6,7 C 98 % 1008,1 hPa 0,0 l/m 0 min 0 min 0 W/m 12,9 km/h (3 Bft) 93,62 %
07.12.2019 03:14 8,6 C 7,2 C 6,7 C 98 % 1008,1 hPa 0,0 l/m 0 min 0 min 0 W/m 29,0 km/h (5 Bft) 95,74 %
07.12.2019 03:16 8,6 C 7,8 C 7,2 C 98 % 1008,1 hPa 0,0 l/m 0 min 0 min 0 W/m 25,7 km/h (4 Bft) 95,74 %
07.12.2019 03:18 8,6 C 7,8 C 7,2 C 98 % 1008,1 hPa 0,0 l/m 0 min 0 min 0 W/m 16,1 km/h (3 Bft) 95,74 %
07.12.2019 03:20 8,6 C 7,8 C 7,2 C 98 % 1008,2 hPa 0,0 l/m 0 min 2 min 0 W/m 16,1 km/h (3 Bft) 95,65 %
07.12.2019 03:22 8,6 C 7,2 C 6,7 C 98 % 1008,2 hPa 0,0 l/m 0 min 2 min 0 W/m 12,9 km/h (3 Bft) 93,62 %
07.12.2019 03:24 8,6 C 7,2 C 6,7 C 98 % 1008,4 hPa 0,0 l/m 0 min 2 min 0 W/m 19,3 km/h (3 Bft) 95,74 %
07.12.2019 03:26 8,6 C 7,2 C 6,7 C 98 % 1008,3 hPa 0,0 l/m 0 min 2 min 0 W/m 12,9 km/h (3 Bft) 93,62 %
07.12.2019 03:28 8,6 C 7,2 C 6,7 C 98 % 1008,3 hPa 0,0 l/m 0 min 2 min 0 W/m 22,5 km/h (4 Bft) 93,62 %
07.12.2019 03:30 8,6 C 7,2 C 6,7 C 98 % 1008,4 hPa 0,0 l/m 0 min 2 min 0 W/m 22,5 km/h (4 Bft) 95,74 %
07.12.2019 03:32 8,6 C 7,2 C 6,7 C 98 % 1008,4 hPa 0,0 l/m 0 min 2 min 0 W/m 25,7 km/h (4 Bft) 97,83 %
07.12.2019 03:34 8,6 C 7,2 C 6,7 C 98 % 1008,3 hPa 0,0 l/m 0 min 2 min 0 W/m 22,5 km/h (4 Bft) 97,87 %
07.12.2019 03:36 8,6 C 7,2 C 6,7 C 98 % 1008,4 hPa 0,0 l/m 0 min 2 min 0 W/m 22,5 km/h (4 Bft) 97,87 %
07.12.2019 03:38 8,6 C 7,2 C 6,7 C 98 % 1008,3 hPa 0,0 l/m 0 min 2 min 0 W/m 22,5 km/h (4 Bft) 97,87 %
07.12.2019 03:40 8,6 C 7,2 C 6,7 C 98 % 1008,5 hPa 0,0 l/m 0 min 0 min 0 W/m 12,9 km/h (3 Bft) 97,87 %
07.12.2019 03:42 8,6 C 7,2 C 6,7 C 98 % 1008,5 hPa 0,0 l/m 0 min 0 min 0 W/m 19,3 km/h (3 Bft) 97,87 %
07.12.2019 03:44 8,6 C 7,2 C 6,7 C 98 % 1008,5 hPa 0,0 l/m 0 min 0 min 0 W/m 16,1 km/h (3 Bft) 97,83 %
07.12.2019 03:46 8,6 C 7,2 C 6,7 C 98 % 1008,6 hPa 0,2 l/m 0 min 2 min 0 W/m 22,5 km/h (4 Bft) 97,87 %
07.12.2019 03:48 8,6 C 7,2 C 6,7 C 98 % 1008,6 hPa 0,0 l/m 0 min 2 min 0 W/m 25,7 km/h (4 Bft) 95,74 %
07.12.2019 03:50 8,6 C 7,2 C 6,7 C 98 % 1008,6 hPa 0,0 l/m 0 min 2 min 0 W/m 16,1 km/h (3 Bft) 97,87 %
07.12.2019 03:52 8,6 C 7,2 C 6,7 C 98 % 1008,7 hPa 0,2 l/m 0 min 2 min 0 W/m 22,5 km/h (4 Bft) 97,87 %
07.12.2019 03:54 8,6 C 7,2 C 6,7 C 98 % 1008,7 hPa 0,0 l/m 0 min 2 min 0 W/m 9,7 km/h (2 Bft) 97,87 %
07.12.2019 03:56 8,6 C 7,2 C 6,7 C 98 % 1008,6 hPa 0,0 l/m 0 min 2 min 0 W/m 16,1 km/h (3 Bft) 97,83 %
07.12.2019 03:58 8,6 C 7,2 C 6,7 C 98 % 1008,6 hPa 0,0 l/m 0 min 2 min 0 W/m 12,9 km/h (3 Bft) 97,87 %
07.12.2019 04:00 8,6 C 7,2 C 6,7 C 98 % 1008,7 hPa 0,0 l/m 0 min 2 min 0 W/m 9,7 km/h (2 Bft) 97,87 %
07.12.2019 04:02 8,6 C 7,2 C 6,7 C 98 % 1008,8 hPa 0,0 l/m 0 min 2 min 0 W/m 12,9 km/h (3 Bft) 97,14 %
07.12.2019 04:04 8,6 C 7,2 C 6,7 C 98 % 1008,9 hPa 0,0 l/m 0 min 2 min 0 W/m 12,9 km/h (3 Bft) 100,00 %
07.12.2019 04:06 8,6 C 7,2 C 6,7 C 98 % 1009,0 hPa 0,2 l/m 0 min 2 min 0 W/m 22,5 km/h (4 Bft) 100,00 %
07.12.2019 04:08 8,6 C 7,2 C 6,7 C 98 % 1008,9 hPa 0,0 l/m 0 min 2 min 0 W/m 19,3 km/h (3 Bft) 97,87 %
07.12.2019 04:10 8,6 C 7,2 C 6,7 C 98 % 1008,9 hPa 0,0 l/m 0 min 2 min 0 W/m 16,1 km/h (3 Bft) 97,87 %
07.12.2019 04:12 8,6 C 7,2 C 6,7 C 98 % 1008,9 hPa 0,2 l/m 0 min 0 min 0 W/m 16,1 km/h (3 Bft) 97,87 %
07.12.2019 04:14 8,6 C 7,2 C 6,7 C 98 % 1009,0 hPa 0,0 l/m 0 min 0 min 0 W/m 16,1 km/h (3 Bft) 100,00 %
07.12.2019 04:16 8,6 C 7,2 C 6,7 C 98 % 1009,0 hPa 0,0 l/m 0 min 0 min 0 W/m 22,5 km/h (4 Bft) 97,87 %
07.12.2019 04:18 8,6 C 7,2 C 6,7 C 98 % 1009,1 hPa 0,0 l/m 0 min 2 min 0 W/m 12,9 km/h (3 Bft) 97,87 %
07.12.2019 04:20 8,6 C 7,2 C 6,7 C 98 % 1009,1 hPa 0,0 l/m 0 min 2 min 0 W/m 9,7 km/h (2 Bft) 97,83 %
07.12.2019 04:22 8,6 C 7,2 C 6,7 C 98 % 1009,1 hPa 0,0 l/m 0 min 2 min 0 W/m 12,9 km/h (3 Bft) 97,87 %
07.12.2019 04:24 8,6 C 7,2 C 6,7 C 99 % 1009,1 hPa 0,0 l/m 0 min 2 min 0 W/m 9,7 km/h (2 Bft) 97,87 %
07.12.2019 04:26 8,5 C 7,2 C 6,7 C 99 % 1009,2 hPa 0,0 l/m 0 min 2 min 0 W/m 9,7 km/h (2 Bft) 97,87 %
07.12.2019 04:28 8,5 C 7,2 C 6,7 C 98 % 1009,2 hPa 0,0 l/m 0 min 2 min 0 W/m 9,7 km/h (2 Bft) 97,87 %
07.12.2019 04:30 8,5 C 7,2 C 6,7 C 98 % 1009,2 hPa 0,0 l/m 0 min 2 min 0 W/m 9,7 km/h (2 Bft) 97,83 %
07.12.2019 04:32 8,5 C 7,2 C 6,7 C 98 % 1009,3 hPa 0,0 l/m 0 min 2 min 0 W/m 16,1 km/h (3 Bft) 97,87 %
07.12.2019 04:34 8,4 C 7,2 C 6,7 C 98 % 1009,3 hPa 0,0 l/m 0 min 2 min 0 W/m 12,9 km/h (3 Bft) 93,62 %
07.12.2019 04:36 8,4 C 7,2 C 6,7 C 98 % 1009,3 hPa 0,0 l/m 0 min 2 min 0 W/m 16,1 km/h (3 Bft) 97,87 %
07.12.2019 04:38 8,4 C 7,2 C 6,7 C 98 % 1009,4 hPa 0,0 l/m 0 min 2 min 0 W/m 22,5 km/h (4 Bft) 95,74 %
07.12.2019 04:40 8,4 C 7,2 C 6,7 C 98 % 1009,5 hPa 0,0 l/m 0 min 2 min 0 W/m 19,3 km/h (3 Bft) 97,87 %
07.12.2019 04:42 8,4 C 7,2 C 6,7 C 98 % 1009,6 hPa 0,0 l/m 0 min 2 min 0 W/m 16,1 km/h (3 Bft) 95,65 %
07.12.2019 04:44 8,4 C 7,2 C 6,7 C 98 % 1009,7 hPa 0,0 l/m 0 min 2 min 0 W/m 12,9 km/h (3 Bft) 97,87 %
07.12.2019 04:46 8,4 C 7,2 C 7,2 C 98 % 1009,6 hPa 0,0 l/m 0 min 2 min 0 W/m 22,5 km/h (4 Bft) 97,87 %
07.12.2019 04:48 8,5 C 7,2 C 6,7 C 98 % 1009,7 hPa 0,0 l/m 0 min 2 min 0 W/m 19,3 km/h (3 Bft) 97,87 %
07.12.2019 04:50 8,4 C 7,2 C 6,7 C 98 % 1009,6 hPa 0,0 l/m 0 min 2 min 0 W/m 22,5 km/h (4 Bft) 97,87 %
07.12.2019 04:52 8,4 C 7,2 C 6,7 C 98 % 1009,7 hPa 0,0 l/m 0 min 2 min 0 W/m 19,3 km/h (3 Bft) 97,87 %
07.12.2019 04:54 8,5 C 7,2 C 6,7 C 98 % 1009,8 hPa 0,0 l/m 0 min 2 min 0 W/m 12,9 km/h (3 Bft) 97,83 %
07.12.2019 04:56 8,5 C 7,2 C 6,7 C 98 % 1009,8 hPa 0,0 l/m 0 min 2 min 0 W/m 12,9 km/h (3 Bft) 97,87 %
07.12.2019 04:58 8,5 C 7,2 C 6,7 C 98 % 1009,8 hPa 0,0 l/m 0 min 2 min 0 W/m 6,4 km/h (2 Bft) 97,87 %
07.12.2019 05:00 8,4 C 7,2 C 6,7 C 98 % 1009,9 hPa 0,0 l/m 0 min 2 min 0 W/m 16,1 km/h (3 Bft) 97,87 %
07.12.2019 05:02 8,4 C 7,2 C 6,7 C 98 % 1009,8 hPa 0,0 l/m 0 min 2 min 0 W/m 22,5 km/h (4 Bft) 97,87 %
07.12.2019 05:04 8,4 C 7,2 C 6,7 C 98 % 1009,8 hPa 0,0 l/m 0 min 2 min 0 W/m 16,1 km/h (3 Bft) 97,83 %
07.12.2019 05:06 8,4 C 7,2 C 6,7 C 98 % 1009,9 hPa 0,0 l/m 0 min 2 min 0 W/m 25,7 km/h (4 Bft) 97,87 %
07.12.2019 05:08 8,4 C 7,2 C 6,7 C 98 % 1010,0 hPa 0,0 l/m 0 min 2 min 0 W/m 16,1 km/h (3 Bft) 100,00 %
07.12.2019 05:10 8,4 C 7,2 C 6,7 C 98 % 1010,0 hPa 0,0 l/m 0 min 2 min 0 W/m 12,9 km/h (3 Bft) 100,00 %
07.12.2019 05:12 8,4 C 7,2 C 6,7 C 98 % 1010,0 hPa 0,0 l/m 0 min 2 min 0 W/m 16,1 km/h (3 Bft) 100,00 %
07.12.2019 05:14 8,4 C 7,2 C 6,7 C 98 % 1010,1 hPa 0,0 l/m 0 min 2 min 0 W/m 19,3 km/h (3 Bft) 100,00 %
07.12.2019 05:16 8,4 C 7,2 C 6,7 C 98 % 1010,1 hPa 0,0 l/m 0 min 2 min 0 W/m 12,9 km/h (3 Bft) 100,00 %
07.12.2019 05:18 8,4 C 7,2 C 6,7 C 98 % 1010,1 hPa 0,0 l/m 0 min 2 min 0 W/m 16,1 km/h (3 Bft) 97,83 %
07.12.2019 05:20 8,4 C 7,2 C 6,7 C 98 % 1010,1 hPa 0,0 l/m 0 min 0 min 0 W/m 16,1 km/h (3 Bft) 97,87 %
07.12.2019 05:22 8,4 C 7,2 C 6,7 C 98 % 1010,1 hPa 0,0 l/m 0 min 2 min 0 W/m 9,7 km/h (2 Bft) 100,00 %
07.12.2019 05:24 8,4 C 7,2 C 6,7 C 98 % 1010,2 hPa 0,0 l/m 0 min 2 min 0 W/m 9,7 km/h (2 Bft) 95,74 %
07.12.2019 05:26 8,4 C 7,2 C 6,7 C 98 % 1010,2 hPa 0,0 l/m 0 min 2 min 0 W/m 12,9 km/h (3 Bft) 97,87 %
07.12.2019 05:28 8,4 C 7,2 C 6,7 C 98 % 1010,2 hPa 0,0 l/m 0 min 0 min 0 W/m 19,3 km/h (3 Bft) 97,83 %
07.12.2019 05:30 8,4 C 7,2 C 6,7 C 98 % 1010,2 hPa 0,0 l/m 0 min 0 min 0 W/m 6,4 km/h (2 Bft) 95,74 %
07.12.2019 05:32 8,4 C 7,2 C 6,7 C 98 % 1010,2 hPa 0,0 l/m 0 min 0 min 0 W/m 12,9 km/h (3 Bft) 97,87 %
07.12.2019 05:34 8,4 C 7,2 C 6,7 C 98 % 1010,2 hPa 0,0 l/m 0 min 0 min 0 W/m 12,9 km/h (3 Bft) 97,87 %
07.12.2019 05:36 8,4 C 7,2 C 6,7 C 98 % 1010,3 hPa 0,0 l/m 0 min 0 min 0 W/m 12,9 km/h (3 Bft) 97,87 %
07.12.2019 05:38 8,4 C 7,2 C 6,7 C 98 % 1010,4 hPa 0,0 l/m 0 min 2 min 0 W/m 22,5 km/h (4 Bft) 97,87 %
07.12.2019 05:40 8,4 C 7,2 C 6,7 C 98 % 1010,4 hPa 0,0 l/m 0 min 2 min 0 W/m 16,1 km/h (3 Bft) 95,65 %
07.12.2019 05:42 8,4 C 7,2 C 6,7 C 98 % 1010,4 hPa 0,0 l/m 0 min 0 min 0 W/m 16,1 km/h (3 Bft) 97,87 %
07.12.2019 05:44 8,4 C 7,2 C 6,7 C 98 % 1010,4 hPa 0,0 l/m 0 min 0 min 0 W/m 16,1 km/h (3 Bft) 97,87 %
07.12.2019 05:46 8,4 C 7,2 C 6,7 C 98 % 1010,4 hPa 0,0 l/m 0 min 0 min 0 W/m 19,3 km/h (3 Bft) 97,87 %
07.12.2019 05:48 8,4 C 7,2 C 6,7 C 98 % 1010,5 hPa 0,0 l/m 0 min 0 min 0 W/m 29,0 km/h (5 Bft) 95,74 %
07.12.2019 05:50 8,4 C 7,2 C 6,7 C 98 % 1010,4 hPa 0,0 l/m 0 min 2 min 0 W/m 9,7 km/h (2 Bft) 97,87 %
07.12.2019 05:52 8,4 C 7,2 C 6,7 C 98 % 1010,5 hPa 0,0 l/m 0 min 0 min 0 W/m 19,3 km/h (3 Bft) 97,83 %
07.12.2019 05:54 8,4 C 7,2 C 6,7 C 98 % 1010,5 hPa 0,0 l/m 0 min 0 min 0 W/m 16,1 km/h (3 Bft) 97,87 %
07.12.2019 05:56 8,4 C 7,2 C 6,7 C 98 % 1010,5 hPa 0,0 l/m 0 min 2 min 0 W/m 16,1 km/h (3 Bft) 95,74 %
07.12.2019 05:58 8,4 C 7,2 C 6,7 C 98 % 1010,6 hPa 0,0 l/m 0 min 0 min 0 W/m 12,9 km/h (3 Bft) 97,87 %
07.12.2019 06:00 8,4 C 7,2 C 6,7 C 98 % 1010,6 hPa 0,0 l/m 0 min 0 min 0 W/m 6,4 km/h (2 Bft) 97,87 %
07.12.2019 06:02 8,3 C 7,2 C 6,7 C 98 % 1010,6 hPa 0,0 l/m 0 min 0 min 0 W/m 16,1 km/h (3 Bft) 97,87 %
07.12.2019 06:04 8,3 C 7,2 C 6,7 C 98 % 1010,7 hPa 0,0 l/m 0 min 0 min 0 W/m 12,9 km/h (3 Bft) 100,00 %
07.12.2019 06:08 8,3 C 7,2 C 6,7 C 98 % 1010,7 hPa 0,0 l/m 0 min 0 min 0 W/m 19,3 km/h (3 Bft) 100,00 %
07.12.2019 06:10 8,3 C 7,2 C 6,7 C 98 % 1010,7 hPa 0,0 l/m 0 min 0 min 0 W/m 16,1 km/h (3 Bft) 100,00 %
07.12.2019 06:12 8,3 C 7,2 C 6,7 C 98 % 1010,8 hPa 0,0 l/m 0 min 0 min 0 W/m 16,1 km/h (3 Bft) 100,00 %
07.12.2019 06:14 8,3 C 7,2 C 6,7 C 98 % 1010,8 hPa 0,0 l/m 0 min 0 min 0 W/m 6,4 km/h (2 Bft) 100,00 %
07.12.2019 06:16 8,3 C 7,2 C 6,7 C 98 % 1010,8 hPa 0,0 l/m 0 min 0 min 0 W/m 16,1 km/h (3 Bft) 100,00 %
07.12.2019 06:18 8,3 C 7,2 C 6,7 C 98 % 1010,8 hPa 0,0 l/m 0 min 0 min 0 W/m 6,4 km/h (2 Bft) 100,00 %
07.12.2019 06:20 8,3 C 7,2 C 6,7 C 98 % 1010,9 hPa 0,0 l/m 0 min 0 min 0 W/m 19,3 km/h (3 Bft) 100,00 %
07.12.2019 06:22 8,3 C 7,2 C 6,7 C 98 % 1010,9 hPa 0,0 l/m 0 min 0 min 0 W/m 16,1 km/h (3 Bft) 100,00 %
07.12.2019 06:24 8,3 C 7,2 C 6,7 C 98 % 1011,0 hPa 0,0 l/m 0 min 0 min 0 W/m 12,9 km/h (3 Bft) 100,00 %
07.12.2019 06:26 8,3 C 7,2 C 6,7 C 98 % 1011,0 hPa 0,0 l/m 0 min 0 min 0 W/m 9,7 km/h (2 Bft) 97,87 %
07.12.2019 06:28 8,3 C 7,2 C 6,7 C 98 % 1011,0 hPa 0,0 l/m 0 min 0 min 0 W/m 16,1 km/h (3 Bft) 97,83 %
07.12.2019 06:30 8,3 C 7,2 C 6,7 C 98 % 1011,1 hPa 0,0 l/m 0 min 0 min 0 W/m 12,9 km/h (3 Bft) 97,87 %
07.12.2019 06:32 8,3 C 7,2 C 6,7 C 98 % 1011,1 hPa 0,0 l/m 0 min 0 min 0 W/m 19,3 km/h (3 Bft) 97,87 %
07.12.2019 06:34 8,3 C 7,2 C 6,7 C 98 % 1011,1 hPa 0,0 l/m 0 min 0 min 0 W/m 12,9 km/h (3 Bft) 97,87 %
07.12.2019 06:36 8,3 C 7,2 C 6,7 C 98 % 1011,1 hPa 0,0 l/m 0 min 0 min 0 W/m 9,7 km/h (2 Bft) 97,87 %
07.12.2019 06:38 8,3 C 7,2 C 6,7 C 98 % 1011,2 hPa 0,0 l/m 0 min 0 min 0 W/m 16,1 km/h (3 Bft) 97,83 %
07.12.2019 06:40 8,3 C 7,2 C 6,7 C 98 % 1011,2 hPa 0,0 l/m 0 min 0 min 0 W/m 19,3 km/h (3 Bft) 95,74 %
07.12.2019 06:42 8,3 C 7,2 C 6,7 C 98 % 1011,2 hPa 0,0 l/m 0 min 0 min 0 W/m 16,1 km/h (3 Bft) 95,74 %
07.12.2019 06:44 8,3 C 7,2 C 6,7 C 98 % 1011,2 hPa 0,0 l/m 0 min 0 min 0 W/m 12,9 km/h (3 Bft) 97,87 %
07.12.2019 06:46 8,3 C 7,2 C 6,7 C 98 % 1011,2 hPa 0,0 l/m 0 min 0 min 0 W/m 9,7 km/h (2 Bft) 97,87 %
07.12.2019 06:48 8,3 C 7,2 C 6,7 C 98 % 1011,3 hPa 0,0 l/m 0 min 0 min 0 W/m 16,1 km/h (3 Bft) 97,87 %
07.12.2019 06:50 8,3 C 7,2 C 6,7 C 98 % 1011,4 hPa 0,0 l/m 0 min 0 min 0 W/m 19,3 km/h (3 Bft) 97,83 %
07.12.2019 06:52 8,3 C 7,2 C 6,7 C 98 % 1011,4 hPa 0,0 l/m 0 min 0 min 0 W/m 12,9 km/h (3 Bft) 95,74 %
07.12.2019 06:54 8,3 C 7,2 C 6,7 C 98 % 1011,3 hPa 0,0 l/m 0 min 0 min 0 W/m 16,1 km/h (3 Bft) 97,87 %
07.12.2019 06:56 8,3 C 7,2 C 6,7 C 98 % 1011,4 hPa 0,0 l/m 0 min 0 min 0 W/m 12,9 km/h (3 Bft) 93,62 %
07.12.2019 06:58 8,3 C 7,2 C 6,7 C 98 % 1011,5 hPa 0,0 l/m 0 min 0 min 0 W/m 16,1 km/h (3 Bft) 97,87 %
07.12.2019 07:00 8,3 C 7,2 C 6,7 C 98 % 1011,4 hPa 0,0 l/m 0 min 0 min 0 W/m 19,3 km/h (3 Bft) 97,87 %
07.12.2019 07:02 8,3 C 7,2 C 6,7 C 98 % 1011,5 hPa 0,0 l/m 0 min 0 min 0 W/m 16,1 km/h (3 Bft) 97,83 %
07.12.2019 07:04 8,3 C 7,2 C 6,7 C 98 % 1011,5 hPa 0,0 l/m 0 min 0 min 0 W/m 22,5 km/h (4 Bft) 97,87 %
07.12.2019 07:06 8,3 C 7,2 C 6,7 C 98 % 1011,4 hPa 0,0 l/m 0 min 0 min 0 W/m 16,1 km/h (3 Bft) 95,74 %
07.12.2019 07:08 8,3 C 7,2 C 6,7 C 98 % 1011,5 hPa 0,0 l/m 0 min 2 min 0 W/m 19,3 km/h (3 Bft) 97,87 %
07.12.2019 07:10 8,3 C 7,2 C 6,7 C 98 % 1011,5 hPa 0,0 l/m 0 min 0 min 0 W/m 19,3 km/h (3 Bft) 95,74 %
07.12.2019 07:12 8,3 C 7,2 C 6,7 C 98 % 1011,5 hPa 0,0 l/m 0 min 0 min 0 W/m 12,9 km/h (3 Bft) 95,65 %
07.12.2019 07:14 8,3 C 7,2 C 6,7 C 98 % 1011,5 hPa 0,0 l/m 0 min 0 min 0 W/m 12,9 km/h (3 Bft) 95,74 %
07.12.2019 07:16 8,3 C 7,2 C 6,7 C 98 % 1011,6 hPa 0,0 l/m 0 min 0 min 0 W/m 9,7 km/h (2 Bft) 93,62 %
07.12.2019 07:18 8,3 C 7,2 C 6,7 C 98 % 1011,6 hPa 0,0 l/m 0 min 0 min 0 W/m 16,1 km/h (3 Bft) 95,74 %
07.12.2019 07:20 8,3 C 7,2 C 6,7 C 98 % 1011,6 hPa 0,0 l/m 0 min 0 min 0 W/m 12,9 km/h (3 Bft) 93,62 %
07.12.2019 07:22 8,3 C 7,2 C 6,7 C 98 % 1011,7 hPa 0,0 l/m 0 min 2 min 0 W/m 16,1 km/h (3 Bft) 97,87 %
07.12.2019 07:24 8,3 C 7,2 C 6,7 C 98 % 1011,7 hPa 0,0 l/m 0 min 2 min 0 W/m 16,1 km/h (3 Bft) 97,83 %
07.12.2019 07:26 8,3 C 6,7 C 6,7 C 97 % 1011,7 hPa 0,0 l/m 0 min 0 min 0 W/m 12,9 km/h (3 Bft) 97,87 %
07.12.2019 07:28 8,3 C 6,7 C 6,7 C 97 % 1011,8 hPa 0,0 l/m 0 min 0 min 0 W/m 19,3 km/h (3 Bft) 97,87 %
07.12.2019 07:30 8,3 C 6,7 C 6,1 C 97 % 1011,9 hPa 0,0 l/m 0 min 0 min 0 W/m 16,1 km/h (3 Bft) 97,87 %
07.12.2019 07:32 8,2 C 6,7 C 6,1 C 97 % 1011,8 hPa 0,0 l/m 0 min 0 min 0 W/m 12,9 km/h (3 Bft) 97,87 %
07.12.2019 07:34 8,2 C 6,7 C 6,1 C 97 % 1011,9 hPa 0,0 l/m 0 min 0 min 0 W/m 19,3 km/h (3 Bft) 97,87 %
07.12.2019 07:36 8,2 C 6,7 C 6,1 C 97 % 1011,9 hPa 0,0 l/m 0 min 0 min 0 W/m 22,5 km/h (4 Bft) 97,83 %
07.12.2019 07:38 8,2 C 6,7 C 6,1 C 97 % 1011,9 hPa 0,0 l/m 0 min 0 min 0 W/m 12,9 km/h (3 Bft) 97,87 %
07.12.2019 07:40 8,2 C 6,7 C 6,1 C 97 % 1011,9 hPa 0,0 l/m 0 min 0 min 0 W/m 12,9 km/h (3 Bft) 97,87 %
07.12.2019 07:42 8,1 C 6,7 C 6,1 C 97 % 1011,9 hPa 0,0 l/m 0 min 2 min 0 W/m 9,7 km/h (2 Bft) 97,87 %
07.12.2019 07:44 8,1 C 6,7 C 6,1 C 97 % 1012,0 hPa 0,0 l/m 0 min 2 min 0 W/m 19,3 km/h (3 Bft) 97,87 %
07.12.2019 07:46 8,1 C 6,7 C 6,1 C 97 % 1012,0 hPa 0,0 l/m 0 min 0 min 0 W/m 12,9 km/h (3 Bft) 97,87 %
07.12.2019 07:48 8,1 C 6,7 C 6,1 C 97 % 1011,9 hPa 0,0 l/m 0 min 0 min 0 W/m 6,4 km/h (2 Bft) 97,83 %
07.12.2019 07:50 8,1 C 6,7 C 6,1 C 97 % 1011,9 hPa 0,0 l/m 0 min 0 min 0 W/m 12,9 km/h (3 Bft) 97,87 %
07.12.2019 07:52 8,1 C 6,7 C 6,1 C 97 % 1012,0 hPa 0,0 l/m 0 min 0 min 0 W/m 19,3 km/h (3 Bft) 95,74 %
07.12.2019 07:54 8,0 C 6,7 C 6,1 C 97 % 1012,1 hPa 0,0 l/m 0 min 0 min 0 W/m 12,9 km/h (3 Bft) 95,74 %
07.12.2019 07:56 8,0 C 6,7 C 6,1 C 97 % 1012,1 hPa 0,0 l/m 0 min 0 min 0 W/m 12,9 km/h (3 Bft) 95,74 %
07.12.2019 07:58 8,0 C 6,7 C 6,1 C 97 % 1012,1 hPa 0,0 l/m 0 min 0 min 0 W/m 19,3 km/h (3 Bft) 97,87 %
07.12.2019 08:00 7,9 C 6,7 C 6,1 C 97 % 1012,1 hPa 0,0 l/m 0 min 0 min 0 W/m 12,9 km/h (3 Bft) 97,83 %
07.12.2019 08:02 7,9 C 6,7 C 6,1 C 97 % 1012,1 hPa 0,0 l/m 0 min 0 min 0 W/m 12,9 km/h (3 Bft) 97,87 %
07.12.2019 08:04 7,9 C 6,7 C 6,1 C 97 % 1012,1 hPa 0,0 l/m 0 min 0 min 0 W/m 12,9 km/h (3 Bft) 97,87 %
07.12.2019 08:06 7,9 C 6,7 C 6,1 C 97 % 1012,2 hPa 0,0 l/m 0 min 0 min 0 W/m 16,1 km/h (3 Bft) 95,74 %
07.12.2019 08:08 7,9 C 6,7 C 6,1 C 97 % 1012,2 hPa 0,0 l/m 0 min 0 min 0 W/m 19,3 km/h (3 Bft) 97,87 %
07.12.2019 08:10 7,9 C 6,7 C 6,1 C 97 % 1012,2 hPa 0,0 l/m 0 min 0 min 0 W/m 16,1 km/h (3 Bft) 97,87 %
07.12.2019 08:12 7,9 C 6,7 C 6,1 C 97 % 1012,2 hPa 0,0 l/m 0 min 0 min 0 W/m 22,5 km/h (4 Bft) 95,65 %
07.12.2019 08:14 7,9 C 6,7 C 6,1 C 97 % 1012,2 hPa 0,0 l/m 0 min 0 min 0 W/m 12,9 km/h (3 Bft) 97,87 %
07.12.2019 08:16 7,9 C 6,7 C 6,1 C 97 % 1012,3 hPa 0,0 l/m 0 min 0 min 0 W/m 12,9 km/h (3 Bft) 97,87 %
07.12.2019 08:18 7,9 C 6,7 C 6,1 C 97 % 1012,3 hPa 0,0 l/m 0 min 0 min 0 W/m 22,5 km/h (4 Bft) 97,87 %
07.12.2019 08:20 7,9 C 6,7 C 6,1 C 97 % 1012,2 hPa 0,0 l/m 0 min 0 min 0 W/m 12,9 km/h (3 Bft) 53,33 %
07.12.2019 08:22 7,9 C 6,7 C 6,1 C 97 % 1012,3 hPa 0,0 l/m 0 min 0 min 0 W/m 19,3 km/h (3 Bft) 97,87 %
07.12.2019 08:24 7,9 C 6,7 C 6,1 C 97 % 1012,3 hPa 0,0 l/m 0 min 0 min 0 W/m 16,1 km/h (3 Bft) 95,65 %
07.12.2019 08:26 7,9 C 6,7 C 6,1 C 97 % 1012,4 hPa 0,0 l/m 0 min 0 min 0 W/m 6,4 km/h (2 Bft) 97,87 %
07.12.2019 08:28 7,9 C 6,7 C 6,1 C 97 % 1012,4 hPa 0,0 l/m 0 min 0 min 0 W/m 19,3 km/h (3 Bft) 97,87 %
07.12.2019 08:30 7,9 C 6,7 C 6,1 C 97 % 1012,4 hPa 0,0 l/m 0 min 0 min 0 W/m 12,9 km/h (3 Bft) 97,87 %
07.12.2019 08:32 7,8 C 6,7 C 6,1 C 97 % 1012,5 hPa 0,0 l/m 0 min 0 min 5 W/m 12,9 km/h (3 Bft) 95,74 %
07.12.2019 08:34 7,9 C 6,7 C 6,1 C 97 % 1012,5 hPa 0,0 l/m 0 min 0 min 5 W/m 12,9 km/h (3 Bft) 97,83 %
07.12.2019 08:36 7,8 C 6,7 C 6,1 C 97 % 1012,5 hPa 0,0 l/m 0 min 0 min 7 W/m 9,7 km/h (2 Bft) 97,87 %
07.12.2019 08:38 7,8 C 6,7 C 6,1 C 97 % 1012,6 hPa 0,0 l/m 0 min 0 min 10 W/m 6,4 km/h (2 Bft) 100,00 %
07.12.2019 08:40 7,9 C 6,7 C 6,1 C 97 % 1012,6 hPa 0,0 l/m 0 min 0 min 14 W/m 6,4 km/h (2 Bft) 95,74 %
07.12.2019 08:42 7,8 C 6,7 C 6,1 C 97 % 1012,6 hPa 0,0 l/m 0 min 0 min 16 W/m 9,7 km/h (2 Bft) 100,00 %
07.12.2019 08:44 7,8 C 6,7 C 6,1 C 97 % 1012,6 hPa 0,0 l/m 0 min 0 min 17 W/m 9,7 km/h (2 Bft) 100,00 %
07.12.2019 08:46 7,8 C 6,7 C 6,1 C 97 % 1012,6 hPa 0,0 l/m 0 min 0 min 14 W/m 16,1 km/h (3 Bft) 100,00 %
07.12.2019 08:48 7,8 C 6,7 C 6,1 C 97 % 1012,7 hPa 0,0 l/m 0 min 0 min 14 W/m 12,9 km/h (3 Bft) 100,00 %
07.12.2019 08:50 7,8 C 6,7 C 6,1 C 97 % 1012,7 hPa 0,0 l/m 0 min 0 min 14 W/m 12,9 km/h (3 Bft) 97,87 %
07.12.2019 08:52 7,9 C 6,7 C 6,1 C 97 % 1012,8 hPa 0,0 l/m 0 min 0 min 14 W/m 16,1 km/h (3 Bft) 100,00 %
07.12.2019 08:54 7,9 C 6,7 C 6,1 C 97 % 1012,7 hPa 0,0 l/m 0 min 0 min 18 W/m 6,4 km/h (2 Bft) 100,00 %
07.12.2019 08:56 7,9 C 7,2 C 6,1 C 97 % 1012,8 hPa 0,0 l/m 0 min 0 min 20 W/m 12,9 km/h (3 Bft) 100,00 %
07.12.2019 08:58 7,9 C 7,2 C 6,7 C 97 % 1012,8 hPa 0,0 l/m 0 min 0 min 21 W/m 6,4 km/h (2 Bft) 100,00 %
07.12.2019 09:00 7,9 C 7,2 C 6,7 C 97 % 1012,8 hPa 0,0 l/m 0 min 0 min 20 W/m 12,9 km/h (3 Bft) 100,00 %
07.12.2019 09:02 7,9 C 7,2 C 6,7 C 97 % 1012,8 hPa 0,0 l/m 0 min 0 min 19 W/m 16,1 km/h (3 Bft) 100,00 %
07.12.2019 09:04 7,9 C 7,2 C 6,7 C 97 % 1012,9 hPa 0,0 l/m 0 min 0 min 18 W/m 16,1 km/h (3 Bft) 100,00 %
07.12.2019 09:06 7,9 C 7,2 C 6,7 C 97 % 1013,0 hPa 0,0 l/m 0 min 0 min 17 W/m 12,9 km/h (3 Bft) 97,87 %
07.12.2019 09:08 8,0 C 7,2 C 6,7 C 97 % 1013,0 hPa 0,0 l/m 0 min 0 min 16 W/m 12,9 km/h (3 Bft) 100,00 %
07.12.2019 09:10 8,0 C 7,2 C 6,7 C 97 % 1013,0 hPa 0,0 l/m 0 min 0 min 16 W/m 6,4 km/h (2 Bft) 100,00 %
07.12.2019 09:12 8,0 C 7,2 C 6,7 C 97 % 1013,0 hPa 0,0 l/m 0 min 0 min 15 W/m 16,1 km/h (3 Bft) 95,74 %
07.12.2019 09:14 8,0 C 7,2 C 6,7 C 97 % 1013,1 hPa 0,0 l/m 0 min 0 min 14 W/m 6,4 km/h (2 Bft) 100,00 %
07.12.2019 09:16 8,0 C 7,2 C 6,7 C 97 % 1013,0 hPa 0,0 l/m 0 min 0 min 17 W/m 9,7 km/h (2 Bft) 100,00 %
07.12.2019 09:18 8,1 C 7,2 C 6,7 C 97 % 1013,0 hPa 0,0 l/m 0 min 0 min 18 W/m 6,4 km/h (2 Bft) 100,00 %
07.12.2019 09:20 8,1 C 7,2 C 6,7 C 97 % 1013,0 hPa 0,0 l/m 0 min 0 min 18 W/m 12,9 km/h (3 Bft) 100,00 %
07.12.2019 09:22 8,1 C 7,2 C 6,7 C 97 % 1013,0 hPa 0,0 l/m 0 min 0 min 17 W/m 9,7 km/h (2 Bft) 100,00 %
07.12.2019 09:24 8,1 C 7,2 C 6,7 C 97 % 1013,0 hPa 0,0 l/m 0 min 0 min 17 W/m 12,9 km/h (3 Bft) 97,87 %
07.12.2019 09:26 8,1 C 7,2 C 6,7 C 97 % 1013,2 hPa 0,0 l/m 0 min 0 min 16 W/m 16,1 km/h (3 Bft) 100,00 %
07.12.2019 09:28 8,1 C 7,2 C 6,7 C 97 % 1013,2 hPa 0,0 l/m 0 min 0 min 19 W/m 19,3 km/h (3 Bft) 100,00 %
07.12.2019 09:30 8,1 C 7,2 C 6,7 C 97 % 1013,2 hPa 0,0 l/m 0 min 0 min 19 W/m 12,9 km/h (3 Bft) 100,00 %
07.12.2019 09:32 8,1 C 7,2 C 6,7 C 97 % 1013,2 hPa 0,0 l/m 0 min 0 min 19 W/m 6,4 km/h (2 Bft) 100,00 %
07.12.2019 09:34 8,1 C 7,2 C 6,7 C 97 % 1013,2 hPa 0,0 l/m 0 min 0 min 19 W/m 9,7 km/h (2 Bft) 97,87 %
07.12.2019 09:36 8,1 C 7,2 C 6,7 C 97 % 1013,3 hPa 0,0 l/m 0 min 0 min 19 W/m 16,1 km/h (3 Bft) 100,00 %
07.12.2019 09:38 8,1 C 7,2 C 6,7 C 97 % 1013,3 hPa 0,0 l/m 0 min 0 min 18 W/m 19,3 km/h (3 Bft) 100,00 %
07.12.2019 09:40 8,1 C 7,2 C 6,7 C 97 % 1013,3 hPa 0,0 l/m 0 min 0 min 16 W/m 16,1 km/h (3 Bft) 100,00 %
07.12.2019 09:42 8,2 C 7,2 C 6,7 C 97 % 1013,4 hPa 0,0 l/m 0 min 0 min 17 W/m 16,1 km/h (3 Bft) 95,74 %
07.12.2019 09:44 8,2 C 7,2 C 6,7 C 97 % 1013,4 hPa 0,0 l/m 0 min 0 min 21 W/m 12,9 km/h (3 Bft) 95,65 %
07.12.2019 09:46 8,2 C 7,2 C 6,7 C 97 % 1013,4 hPa 0,0 l/m 0 min 0 min 26 W/m 12,9 km/h (3 Bft) 97,87 %
07.12.2019 09:48 8,2 C 7,2 C 6,7 C 97 % 1013,4 hPa 0,0 l/m 0 min 0 min 25 W/m 12,9 km/h (3 Bft) 97,87 %
07.12.2019 09:50 8,2 C 7,2 C 6,7 C 97 % 1013,5 hPa 0,0 l/m 0 min 0 min 22 W/m 12,9 km/h (3 Bft) 97,87 %
07.12.2019 09:52 8,2 C 7,2 C 6,7 C 97 % 1013,5 hPa 0,0 l/m 0 min 0 min 22 W/m 12,9 km/h (3 Bft) 95,74 %
07.12.2019 09:54 8,3 C 7,2 C 6,7 C 97 % 1013,6 hPa 0,0 l/m 0 min 0 min 23 W/m 12,9 km/h (3 Bft) 95,74 %
07.12.2019 09:56 8,3 C 7,2 C 6,7 C 97 % 1013,5 hPa 0,0 l/m 0 min 0 min 22 W/m 16,1 km/h (3 Bft) 97,83 %
07.12.2019 09:58 8,3 C 7,2 C 6,7 C 97 % 1013,5 hPa 0,0 l/m 0 min 0 min 26 W/m 12,9 km/h (3 Bft) 97,87 %
07.12.2019 10:00 8,3 C 7,2 C 6,7 C 97 % 1013,5 hPa 0,0 l/m 0 min 0 min 28 W/m 9,7 km/h (2 Bft) 47,37 %
07.12.2019 10:02 8,3 C 7,2 C 6,7 C 97 % 1013,6 hPa 0,0 l/m 0 min 0 min 27 W/m 16,1 km/h (3 Bft) 93,62 %
07.12.2019 10:04 8,3 C 7,2 C 6,7 C 97 % 1013,6 hPa 0,0 l/m 0 min 0 min 26 W/m 16,1 km/h (3 Bft) 95,74 %
07.12.2019 10:06 8,3 C 7,2 C 6,7 C 97 % 1013,6 hPa 0,0 l/m 0 min 0 min 25 W/m 16,1 km/h (3 Bft) 93,62 %
07.12.2019 10:08 8,4 C 7,2 C 6,7 C 97 % 1013,6 hPa 0,0 l/m 0 min 0 min 25 W/m 16,1 km/h (3 Bft) 95,65 %
07.12.2019 10:10 8,4 C 7,2 C 6,7 C 96 % 1013,5 hPa 0,0 l/m 0 min 0 min 25 W/m 16,1 km/h (3 Bft) 95,74 %
07.12.2019 10:12 8,4 C 7,2 C 6,7 C 96 % 1013,6 hPa 0,0 l/m 0 min 0 min 30 W/m 12,9 km/h (3 Bft) 95,74 %
07.12.2019 10:14 8,4 C 7,2 C 6,7 C 96 % 1013,6 hPa 0,0 l/m 0 min 0 min 31 W/m 12,9 km/h (3 Bft) 95,74 %
07.12.2019 10:16 8,4 C 7,8 C 6,7 C 96 % 1013,5 hPa 0,0 l/m 0 min 0 min 31 W/m 16,1 km/h (3 Bft) 95,74 %
07.12.2019 10:18 8,4 C 7,8 C 6,7 C 96 % 1013,5 hPa 0,0 l/m 0 min 0 min 32 W/m 12,9 km/h (3 Bft) 95,65 %
07.12.2019 10:20 8,4 C 7,8 C 6,7 C 96 % 1013,6 hPa 0,0 l/m 0 min 0 min 35 W/m 12,9 km/h (3 Bft) 95,74 %
07.12.2019 10:22 8,4 C 7,8 C 7,2 C 96 % 1013,6 hPa 0,0 l/m 0 min 0 min 38 W/m 16,1 km/h (3 Bft) 95,74 %
07.12.2019 10:24 8,4 C 7,8 C 7,2 C 96 % 1013,7 hPa 0,0 l/m 0 min 0 min 38 W/m 19,3 km/h (3 Bft) 93,62 %
07.12.2019 10:26 8,4 C 7,8 C 7,2 C 96 % 1013,7 hPa 0,0 l/m 0 min 0 min 38 W/m 6,4 km/h (2 Bft) 95,74 %
07.12.2019 10:28 8,5 C 7,8 C 7,2 C 96 % 1013,7 hPa 0,0 l/m 0 min 0 min 40 W/m 12,9 km/h (3 Bft) 93,62 %
07.12.2019 10:30 8,5 C 7,8 C 7,2 C 96 % 1013,7 hPa 0,0 l/m 0 min 0 min 45 W/m 16,1 km/h (3 Bft) 93,48 %
07.12.2019 10:32 8,5 C 7,8 C 7,2 C 96 % 1013,7 hPa 0,0 l/m 0 min 0 min 49 W/m 12,9 km/h (3 Bft) 93,62 %
07.12.2019 10:34 8,5 C 7,8 C 7,2 C 96 % 1013,7 hPa 0,0 l/m 0 min 0 min 52 W/m 16,1 km/h (3 Bft) 91,49 %
07.12.2019 10:36 8,5 C 7,8 C 7,2 C 96 % 1013,8 hPa 0,0 l/m 0 min 0 min 54 W/m 9,7 km/h (2 Bft) 91,49 %
07.12.2019 10:38 8,5 C 7,8 C 7,2 C 96 % 1013,8 hPa 0,0 l/m 0 min 0 min 50 W/m 12,9 km/h (3 Bft) 91,49 %
07.12.2019 10:40 8,6 C 7,8 C 7,2 C 96 % 1013,8 hPa 0,0 l/m 0 min 0 min 43 W/m 9,7 km/h (2 Bft) 95,74 %
07.12.2019 10:42 8,6 C 8,3 C 7,2 C 96 % 1013,8 hPa 0,0 l/m 0 min 0 min 41 W/m 16,1 km/h (3 Bft) 91,30 %
07.12.2019 10:44 8,6 C 8,3 C 7,2 C 96 % 1013,9 hPa 0,0 l/m 0 min 0 min 42 W/m 6,4 km/h (2 Bft) 91,49 %
07.12.2019 10:46 8,6 C 8,3 C 7,2 C 96 % 1013,9 hPa 0,0 l/m 0 min 0 min 45 W/m 12,9 km/h (3 Bft) 97,87 %
07.12.2019 10:48 8,6 C 8,3 C 7,2 C 96 % 1014,0 hPa 0,0 l/m 0 min 0 min 48 W/m 12,9 km/h (3 Bft) 97,87 %
07.12.2019 10:50 8,6 C 8,3 C 7,2 C 96 % 1014,0 hPa 0,0 l/m 0 min 0 min 52 W/m 16,1 km/h (3 Bft) 97,87 %
07.12.2019 10:52 8,6 C 8,3 C 7,2 C 96 % 1014,1 hPa 0,0 l/m 0 min 0 min 56 W/m 9,7 km/h (2 Bft) 97,87 %
07.12.2019 10:54 8,6 C 8,3 C 7,2 C 96 % 1014,1 hPa 0,0 l/m 0 min 0 min 61 W/m 9,7 km/h (2 Bft) 97,83 %
07.12.2019 10:56 8,6 C 8,3 C 7,2 C 96 % 1014,1 hPa 0,0 l/m 0 min 0 min 57 W/m 16,1 km/h (3 Bft) 97,87 %
07.12.2019 10:58 8,6 C 8,3 C 7,2 C 96 % 1014,2 hPa 0,0 l/m 0 min 0 min 52 W/m 6,4 km/h (2 Bft) 95,74 %
07.12.2019 11:00 8,6 C 8,3 C 7,2 C 96 % 1014,2 hPa 0,0 l/m 0 min 0 min 50 W/m 6,4 km/h (2 Bft) 93,62 %
07.12.2019 11:02 8,7 C 8,3 C 7,2 C 96 % 1014,2 hPa 0,0 l/m 0 min 0 min 49 W/m 12,9 km/h (3 Bft) 97,87 %
07.12.2019 11:04 8,7 C 8,3 C 7,2 C 96 % 1014,3 hPa 0,0 l/m 0 min 0 min 53 W/m 16,1 km/h (3 Bft) 97,87 %
07.12.2019 11:06 8,7 C 8,3 C 7,2 C 96 % 1014,3 hPa 0,0 l/m 0 min 0 min 53 W/m 16,1 km/h (3 Bft) 97,83 %
07.12.2019 11:08 8,7 C 8,3 C 7,2 C 95 % 1014,3 hPa 0,0 l/m 0 min 0 min 49 W/m 19,3 km/h (3 Bft) 97,87 %
07.12.2019 11:10 8,7 C 8,3 C 7,2 C 95 % 1014,2 hPa 0,0 l/m 0 min 0 min 51 W/m 16,1 km/h (3 Bft) 100,00 %
07.12.2019 11:12 8,7 C 8,3 C 7,2 C 95 % 1014,2 hPa 0,0 l/m 0 min 0 min 54 W/m 16,1 km/h (3 Bft) 100,00 %
07.12.2019 11:14 8,7 C 8,3 C 7,2 C 95 % 1014,2 hPa 0,0 l/m 0 min 0 min 54 W/m 16,1 km/h (3 Bft) 97,87 %
07.12.2019 11:16 8,7 C 8,3 C 7,2 C 95 % 1014,2 hPa 0,0 l/m 0 min 0 min 53 W/m 12,9 km/h (3 Bft) 97,83 %
07.12.2019 11:18 8,7 C 8,3 C 7,2 C 95 % 1014,2 hPa 0,0 l/m 0 min 0 min 53 W/m 16,1 km/h (3 Bft) 97,87 %
07.12.2019 11:20 8,7 C 8,3 C 7,2 C 95 % 1014,2 hPa 0,0 l/m 0 min 0 min 53 W/m 12,9 km/h (3 Bft) 100,00 %
07.12.2019 11:22 8,7 C 8,3 C 7,2 C 95 % 1014,2 hPa 0,0 l/m 0 min 0 min 55 W/m 6,4 km/h (2 Bft) 97,87 %
07.12.2019 11:24 8,7 C 8,3 C 7,2 C 95 % 1014,2 hPa 0,0 l/m 0 min 0 min 47 W/m 12,9 km/h (3 Bft) 100,00 %
07.12.2019 11:26 8,7 C 8,3 C 7,2 C 95 % 1014,2 hPa 0,0 l/m 0 min 0 min 44 W/m 12,9 km/h (3 Bft) 97,87 %
07.12.2019 11:28 8,7 C 8,3 C 7,2 C 95 % 1014,2 hPa 0,0 l/m 0 min 0 min 44 W/m 12,9 km/h (3 Bft) 100,00 %
07.12.2019 11:30 8,7 C 8,3 C 7,2 C 95 % 1014,2 hPa 0,0 l/m 0 min 0 min 46 W/m 12,9 km/h (3 Bft) 100,00 %
07.12.2019 11:32 8,7 C 8,3 C 7,2 C 95 % 1014,2 hPa 0,0 l/m 0 min 0 min 47 W/m 22,5 km/h (4 Bft) 100,00 %
07.12.2019 11:34 8,7 C 8,3 C 7,2 C 95 % 1014,1 hPa 0,0 l/m 0 min 0 min 47 W/m 12,9 km/h (3 Bft) 100,00 %
07.12.2019 11:36 8,7 C 8,3 C 7,2 C 95 % 1014,2 hPa 0,0 l/m 0 min 0 min 50 W/m 19,3 km/h (3 Bft) 97,87 %
07.12.2019 11:38 8,8 C 8,3 C 7,2 C 95 % 1014,1 hPa 0,0 l/m 0 min 0 min 50 W/m 12,9 km/h (3 Bft) 100,00 %
07.12.2019 11:40 8,8 C 8,3 C 7,2 C 95 % 1014,1 hPa 0,0 l/m 0 min 0 min 50 W/m 12,9 km/h (3 Bft) 97,83 %
07.12.2019 11:42 8,8 C 8,3 C 7,8 C 95 % 1014,1 hPa 0,0 l/m 0 min 0 min 51 W/m 12,9 km/h (3 Bft) 100,00 %
07.12.2019 11:44 8,8 C 8,3 C 7,8 C 95 % 1014,1 hPa 0,0 l/m 0 min 0 min 49 W/m 12,9 km/h (3 Bft) 100,00 %
07.12.2019 11:46 8,8 C 8,3 C 7,8 C 95 % 1014,1 hPa 0,0 l/m 0 min 0 min 47 W/m 16,1 km/h (3 Bft) 100,00 %
07.12.2019 11:48 8,8 C 8,3 C 7,8 C 95 % 1014,1 hPa 0,0 l/m 0 min 0 min 51 W/m 12,9 km/h (3 Bft) 100,00 %
07.12.2019 11:50 8,8 C 8,3 C 7,8 C 95 % 1014,1 hPa 0,0 l/m 0 min 0 min 59 W/m 12,9 km/h (3 Bft) 100,00 %
07.12.2019 11:52 8,8 C 8,3 C 7,8 C 95 % 1014,2 hPa 0,0 l/m 0 min 0 min 67 W/m 6,4 km/h (2 Bft) 100,00 %
07.12.2019 11:54 8,8 C 8,9 C 7,8 C 95 % 1014,1 hPa 0,0 l/m 0 min 0 min 71 W/m 12,9 km/h (3 Bft) 100,00 %
07.12.2019 11:56 8,8 C 8,9 C 7,8 C 95 % 1014,1 hPa 0,0 l/m 0 min 0 min 70 W/m 16,1 km/h (3 Bft) 100,00 %
07.12.2019 11:58 8,8 C 8,9 C 7,8 C 95 % 1014,1 hPa 0,0 l/m 0 min 0 min 64 W/m 16,1 km/h (3 Bft) 100,00 %
07.12.2019 12:00 8,8 C 8,9 C 7,8 C 95 % 1014,1 hPa 0,0 l/m 0 min 0 min 66 W/m 19,3 km/h (3 Bft) 100,00 %
07.12.2019 12:02 8,8 C 8,9 C 7,8 C 95 % 1014,0 hPa 0,0 l/m 0 min 0 min 68 W/m 25,7 km/h (4 Bft) 100,00 %
07.12.2019 12:04 8,9 C 8,9 C 8,3 C 94 % 1013,9 hPa 0,0 l/m 0 min 0 min 71 W/m 32,2 km/h (5 Bft) 100,00 %
07.12.2019 12:08 8,9 C 8,9 C 8,3 C 94 % 1013,9 hPa 0,0 l/m 0 min 0 min 76 W/m 29,0 km/h (5 Bft) 100,00 %
07.12.2019 12:10 8,9 C 8,9 C 8,3 C 94 % 1013,9 hPa 0,0 l/m 0 min 0 min 77 W/m 19,3 km/h (3 Bft) 100,00 %
07.12.2019 12:12 8,9 C 8,9 C 8,3 C 94 % 1013,8 hPa 0,0 l/m 0 min 0 min 76 W/m 16,1 km/h (3 Bft) 100,00 %
07.12.2019 12:14 9,0 C 8,9 C 8,3 C 94 % 1013,8 hPa 0,0 l/m 0 min 0 min 75 W/m 16,1 km/h (3 Bft) 100,00 %
07.12.2019 12:16 9,0 C 8,9 C 8,3 C 94 % 1013,8 hPa 0,0 l/m 0 min 0 min 82 W/m 25,7 km/h (4 Bft) 100,00 %
07.12.2019 12:18 9,0 C 8,9 C 8,3 C 94 % 1013,7 hPa 0,0 l/m 0 min 0 min 87 W/m 29,0 km/h (5 Bft) 100,00 %
07.12.2019 12:20 9,0 C 8,9 C 8,3 C 94 % 1013,6 hPa 0,0 l/m 0 min 0 min 93 W/m 12,9 km/h (3 Bft) 97,87 %
07.12.2019 12:22 9,0 C 8,9 C 8,3 C 94 % 1013,7 hPa 0,0 l/m 0 min 0 min 93 W/m 35,4 km/h (5 Bft) 100,00 %
07.12.2019 12:24 9,1 C 8,9 C 8,3 C 94 % 1013,7 hPa 0,0 l/m 0 min 0 min 88 W/m 19,3 km/h (3 Bft) 97,87 %
07.12.2019 12:26 9,1 C 8,9 C 8,3 C 93 % 1013,8 hPa 0,0 l/m 0 min 0 min 91 W/m 16,1 km/h (3 Bft) 100,00 %
07.12.2019 12:28 9,1 C 8,9 C 8,3 C 93 % 1013,8 hPa 0,0 l/m 0 min 0 min 98 W/m 22,5 km/h (4 Bft) 100,00 %
07.12.2019 12:30 9,1 C 8,9 C 8,3 C 93 % 1013,8 hPa 0,0 l/m 0 min 0 min 103 W/m 19,3 km/h (3 Bft) 100,00 %
07.12.2019 12:32 9,1 C 9,4 C 8,9 C 93 % 1013,9 hPa 0,0 l/m 0 min 0 min 105 W/m 12,9 km/h (3 Bft) 100,00 %
07.12.2019 12:34 9,1 C 9,4 C 8,9 C 93 % 1013,9 hPa 0,0 l/m 0 min 0 min 107 W/m 12,9 km/h (3 Bft) 97,87 %
07.12.2019 12:36 9,1 C 9,4 C 8,9 C 93 % 1013,9 hPa 0,0 l/m 0 min 0 min 100 W/m 12,9 km/h (3 Bft) 100,00 %
07.12.2019 12:38 9,2 C 9,4 C 8,9 C 93 % 1013,9 hPa 0,0 l/m 0 min 0 min 90 W/m 19,3 km/h (3 Bft) 97,83 %
07.12.2019 12:40 9,2 C 9,4 C 8,9 C 93 % 1014,0 hPa 0,0 l/m 0 min 0 min 88 W/m 12,9 km/h (3 Bft) 97,87 %
07.12.2019 12:42 9,2 C 9,4 C 8,9 C 93 % 1014,0 hPa 0,0 l/m 0 min 0 min 91 W/m 19,3 km/h (3 Bft) 97,87 %
07.12.2019 12:44 9,2 C 9,4 C 8,9 C 93 % 1014,0 hPa 0,0 l/m 0 min 0 min 90 W/m 12,9 km/h (3 Bft) 100,00 %
07.12.2019 12:46 9,2 C 9,4 C 8,9 C 93 % 1013,9 hPa 0,0 l/m 0 min 0 min 91 W/m 29,0 km/h (5 Bft) 100,00 %
07.12.2019 12:48 9,2 C 9,4 C 8,9 C 93 % 1014,0 hPa 0,0 l/m 0 min 0 min 91 W/m 9,7 km/h (2 Bft) 93,62 %
07.12.2019 12:50 9,3 C 9,4 C 8,9 C 92 % 1013,9 hPa 0,0 l/m 0 min 0 min 90 W/m 12,9 km/h (3 Bft) 93,48 %
07.12.2019 12:52 9,3 C 9,4 C 8,9 C 92 % 1014,0 hPa 0,0 l/m 0 min 0 min 86 W/m 12,9 km/h (3 Bft) 97,87 %
07.12.2019 12:54 9,3 C 9,4 C 8,3 C 92 % 1014,0 hPa 0,0 l/m 0 min 0 min 86 W/m 6,4 km/h (2 Bft) 95,74 %
07.12.2019 12:56 9,3 C 9,4 C 8,3 C 92 % 1014,0 hPa 0,0 l/m 0 min 0 min 89 W/m 19,3 km/h (3 Bft) 93,62 %
07.12.2019 12:58 9,3 C 9,4 C 8,9 C 92 % 1014,1 hPa 0,0 l/m 0 min 0 min 91 W/m 22,5 km/h (4 Bft) 93,62 %
07.12.2019 13:00 9,3 C 9,4 C 8,9 C 92 % 1014,1 hPa 0,0 l/m 0 min 0 min 90 W/m 12,9 km/h (3 Bft) 95,74 %
07.12.2019 13:02 9,3 C 9,4 C 8,9 C 92 % 1014,0 hPa 0,0 l/m 0 min 0 min 90 W/m 19,3 km/h (3 Bft) 91,30 %
07.12.2019 13:04 9,3 C 9,4 C 8,9 C 92 % 1014,0 hPa 0,0 l/m 0 min 0 min 94 W/m 12,9 km/h (3 Bft) 91,49 %
07.12.2019 13:06 9,3 C 9,4 C 8,9 C 92 % 1014,1 hPa 0,0 l/m 0 min 0 min 100 W/m 12,9 km/h (3 Bft) 93,62 %
07.12.2019 13:08 9,3 C 9,4 C 8,9 C 92 % 1014,1 hPa 0,0 l/m 0 min 0 min 98 W/m 9,7 km/h (2 Bft) 93,62 %
07.12.2019 13:10 9,4 C 9,4 C 8,9 C 92 % 1014,1 hPa 0,0 l/m 0 min 0 min 98 W/m 6,4 km/h (2 Bft) 93,62 %
07.12.2019 13:12 9,4 C 9,4 C 8,9 C 91 % 1014,1 hPa 0,0 l/m 0 min 0 min 102 W/m 12,9 km/h (3 Bft) 95,74 %
07.12.2019 13:14 9,4 C 9,4 C 8,9 C 91 % 1014,1 hPa 0,0 l/m 0 min 0 min 107 W/m 12,9 km/h (3 Bft) 93,48 %
07.12.2019 13:16 9,4 C 10,0 C 8,9 C 91 % 1014,0 hPa 0,0 l/m 0 min 0 min 112 W/m 12,9 km/h (3 Bft) 93,62 %
07.12.2019 13:18 9,4 C 9,4 C 8,9 C 91 % 1014,0 hPa 0,0 l/m 0 min 0 min 113 W/m 19,3 km/h (3 Bft) 91,49 %
07.12.2019 13:20 9,4 C 9,4 C 8,9 C 91 % 1014,0 hPa 0,0 l/m 0 min 0 min 112 W/m 16,1 km/h (3 Bft) 93,62 %
07.12.2019 13:22 9,5 C 9,4 C 8,9 C 91 % 1014,1 hPa 0,0 l/m 0 min 0 min 105 W/m 19,3 km/h (3 Bft) 93,62 %
07.12.2019 13:24 9,5 C 9,4 C 8,9 C 91 % 1014,1 hPa 0,0 l/m 0 min 0 min 96 W/m 16,1 km/h (3 Bft) 91,30 %
07.12.2019 13:26 9,5 C 9,4 C 8,9 C 91 % 1014,1 hPa 0,0 l/m 0 min 0 min 90 W/m 16,1 km/h (3 Bft) 93,62 %
07.12.2019 13:28 9,6 C 9,4 C 8,9 C 91 % 1014,0 hPa 0,0 l/m 0 min 0 min 93 W/m 12,9 km/h (3 Bft) 93,62 %
07.12.2019 13:30 9,6 C 9,4 C 8,9 C 90 % 1014,0 hPa 0,0 l/m 0 min 0 min 102 W/m 12,9 km/h (3 Bft) 93,62 %
07.12.2019 13:32 9,6 C 9,4 C 8,9 C 90 % 1014,1 hPa 0,0 l/m 0 min 0 min 108 W/m 16,1 km/h (3 Bft) 95,74 %
07.12.2019 13:34 9,6 C 9,4 C 8,9 C 90 % 1014,1 hPa 0,0 l/m 0 min 0 min 106 W/m 6,4 km/h (2 Bft) 97,87 %
07.12.2019 13:36 9,6 C 10,0 C 8,9 C 90 % 1014,2 hPa 0,0 l/m 0 min 0 min 105 W/m 6,4 km/h (2 Bft) 93,48 %
07.12.2019 13:38 9,6 C 10,0 C 8,9 C 90 % 1014,2 hPa 0,0 l/m 0 min 0 min 105 W/m 9,7 km/h (2 Bft) 95,74 %
07.12.2019 13:40 9,6 C 10,0 C 8,9 C 90 % 1014,2 hPa 0,0 l/m 0 min 0 min 106 W/m 6,4 km/h (2 Bft) 97,87 %
07.12.2019 13:42 9,6 C 9,4 C 8,9 C 90 % 1014,3 hPa 0,0 l/m 0 min 0 min 96 W/m 9,7 km/h (2 Bft) 97,87 %
07.12.2019 13:44 9,6 C 9,4 C 8,9 C 90 % 1014,2 hPa 0,0 l/m 0 min 0 min 91 W/m 12,9 km/h (3 Bft) 95,74 %
07.12.2019 13:46 9,6 C 9,4 C 8,9 C 90 % 1014,3 hPa 0,0 l/m 0 min 0 min 96 W/m 12,9 km/h (3 Bft) 95,74 %
07.12.2019 13:48 9,6 C 9,4 C 8,9 C 90 % 1014,2 hPa 0,0 l/m 0 min 0 min 99 W/m 19,3 km/h (3 Bft) 97,83 %
07.12.2019 13:50 9,6 C 9,4 C 8,9 C 90 % 1014,4 hPa 0,0 l/m 0 min 0 min 100 W/m 19,3 km/h (3 Bft) 97,87 %
07.12.2019 13:52 9,6 C 9,4 C 8,9 C 90 % 1014,3 hPa 0,0 l/m 0 min 0 min 102 W/m 16,1 km/h (3 Bft) 97,87 %
07.12.2019 13:54 9,6 C 9,4 C 8,9 C 90 % 1014,4 hPa 0,0 l/m 0 min 0 min 104 W/m 16,1 km/h (3 Bft) 93,62 %
07.12.2019 13:56 9,6 C 9,4 C 8,9 C 90 % 1014,4 hPa 0,0 l/m 0 min 0 min 104 W/m 16,1 km/h (3 Bft) 97,87 %
07.12.2019 13:58 9,7 C 9,4 C 8,9 C 90 % 1014,4 hPa 0,0 l/m 0 min 0 min 102 W/m 12,9 km/h (3 Bft) 97,87 %
07.12.2019 14:00 9,7 C 9,4 C 8,9 C 90 % 1014,2 hPa 0,0 l/m 0 min 0 min 101 W/m 16,1 km/h (3 Bft) 100,00 %
07.12.2019 14:02 9,7 C 9,4 C 8,9 C 89 % 1014,3 hPa 0,0 l/m 0 min 0 min 105 W/m 16,1 km/h (3 Bft) 97,87 %
07.12.2019 14:04 9,7 C 10,0 C 8,9 C 89 % 1014,4 hPa 0,0 l/m 0 min 0 min 114 W/m 12,9 km/h (3 Bft) 100,00 %
07.12.2019 14:06 9,7 C 10,0 C 8,9 C 89 % 1014,4 hPa 0,0 l/m 0 min 0 min 111 W/m 22,5 km/h (4 Bft) 100,00 %
07.12.2019 14:08 9,7 C 10,0 C 8,9 C 89 % 1014,4 hPa 0,0 l/m 0 min 0 min 110 W/m 6,4 km/h (2 Bft) 100,00 %
07.12.2019 14:10 9,7 C 10,0 C 8,9 C 89 % 1014,4 hPa 0,0 l/m 0 min 0 min 121 W/m 25,7 km/h (4 Bft) 100,00 %
07.12.2019 14:12 9,7 C 10,0 C 8,9 C 89 % 1014,4 hPa 0,0 l/m 2 min 0 min 138 W/m 16,1 km/h (3 Bft) 95,65 %
07.12.2019 14:14 9,7 C 10,0 C 8,9 C 89 % 1014,4 hPa 0,0 l/m 2 min 0 min 146 W/m 9,7 km/h (2 Bft) 100,00 %
07.12.2019 14:16 9,7 C 10,0 C 9,4 C 89 % 1014,4 hPa 0,0 l/m 2 min 0 min 142 W/m 12,9 km/h (3 Bft) 100,00 %
07.12.2019 14:18 9,8 C 10,0 C 9,4 C 89 % 1014,3 hPa 0,0 l/m 2 min 0 min 142 W/m 16,1 km/h (3 Bft) 100,00 %
07.12.2019 14:20 9,8 C 10,0 C 9,4 C 89 % 1014,4 hPa 0,0 l/m 2 min 0 min 138 W/m 12,9 km/h (3 Bft) 100,00 %
07.12.2019 14:22 9,8 C 10,0 C 9,4 C 89 % 1014,4 hPa 0,0 l/m 2 min 0 min 125 W/m 12,9 km/h (3 Bft) 100,00 %
07.12.2019 14:24 9,8 C 10,0 C 8,9 C 89 % 1014,4 hPa 0,0 l/m 0 min 0 min 108 W/m 22,5 km/h (4 Bft) 100,00 %
07.12.2019 14:26 9,8 C 10,0 C 8,9 C 88 % 1014,5 hPa 0,0 l/m 0 min 0 min 88 W/m 12,9 km/h (3 Bft) 100,00 %
07.12.2019 14:28 9,8 C 9,4 C 8,9 C 88 % 1014,4 hPa 0,0 l/m 0 min 0 min 81 W/m 12,9 km/h (3 Bft) 97,87 %
07.12.2019 14:30 9,8 C 9,4 C 8,9 C 88 % 1014,4 hPa 0,0 l/m 0 min 0 min 77 W/m 16,1 km/h (3 Bft) 100,00 %
07.12.2019 14:32 9,8 C 9,4 C 8,9 C 88 % 1014,4 hPa 0,0 l/m 0 min 0 min 77 W/m 19,3 km/h (3 Bft) 100,00 %
07.12.2019 14:34 9,8 C 9,4 C 8,9 C 88 % 1014,4 hPa 0,0 l/m 0 min 0 min 75 W/m 16,1 km/h (3 Bft) 100,00 %
07.12.2019 14:36 9,8 C 9,4 C 8,9 C 88 % 1014,4 hPa 0,0 l/m 0 min 0 min 67 W/m 12,9 km/h (3 Bft) 100,00 %
07.12.2019 14:38 9,8 C 9,4 C 8,9 C 88 % 1014,3 hPa 0,0 l/m 0 min 0 min 53 W/m 12,9 km/h (3 Bft) 100,00 %
07.12.2019 14:40 9,8 C 9,4 C 8,9 C 88 % 1014,3 hPa 0,0 l/m 0 min 0 min 50 W/m 16,1 km/h (3 Bft) 100,00 %
07.12.2019 14:42 9,7 C 8,9 C 8,3 C 88 % 1014,4 hPa 0,0 l/m 0 min 0 min 48 W/m 16,1 km/h (3 Bft) 100,00 %
07.12.2019 14:44 9,7 C 8,9 C 8,3 C 88 % 1014,3 hPa 0,0 l/m 0 min 0 min 49 W/m 12,9 km/h (3 Bft) 100,00 %
07.12.2019 14:46 9,7 C 8,9 C 8,3 C 88 % 1014,4 hPa 0,0 l/m 0 min 0 min 44 W/m 12,9 km/h (3 Bft) 100,00 %
07.12.2019 14:48 9,7 C 8,9 C 8,3 C 88 % 1014,3 hPa 0,0 l/m 0 min 0 min 43 W/m 19,3 km/h (3 Bft) 100,00 %
07.12.2019 14:50 9,7 C 8,9 C 8,3 C 88 % 1014,2 hPa 0,0 l/m 0 min 0 min 41 W/m 16,1 km/h (3 Bft) 100,00 %
07.12.2019 14:52 9,6 C 8,9 C 8,3 C 87 % 1014,2 hPa 0,0 l/m 0 min 0 min 43 W/m 16,1 km/h (3 Bft) 100,00 %
07.12.2019 14:54 9,6 C 8,9 C 8,3 C 87 % 1014,2 hPa 0,0 l/m 0 min 0 min 50 W/m 19,3 km/h (3 Bft) 100,00 %
07.12.2019 14:56 9,6 C 8,9 C 8,3 C 88 % 1014,3 hPa 0,0 l/m 0 min 0 min 52 W/m 16,1 km/h (3 Bft) 100,00 %
07.12.2019 14:58 9,6 C 8,9 C 8,3 C 88 % 1014,3 hPa 0,0 l/m 0 min 0 min 53 W/m 12,9 km/h (3 Bft) 100,00 %
07.12.2019 15:00 9,6 C 8,9 C 8,3 C 88 % 1014,3 hPa 0,0 l/m 0 min 0 min 51 W/m 16,1 km/h (3 Bft) 100,00 %
07.12.2019 15:02 9,6 C 8,9 C 8,3 C 88 % 1014,3 hPa 0,0 l/m 0 min 0 min 51 W/m 16,1 km/h (3 Bft) 100,00 %
07.12.2019 15:04 9,6 C 8,9 C 8,3 C 88 % 1014,3 hPa 0,0 l/m 0 min 0 min 50 W/m 12,9 km/h (3 Bft) 100,00 %
07.12.2019 15:06 9,5 C 8,9 C 8,3 C 88 % 1014,3 hPa 0,0 l/m 0 min 0 min 48 W/m 12,9 km/h (3 Bft) 97,87 %
07.12.2019 15:08 9,5 C 8,9 C 8,3 C 88 % 1014,3 hPa 0,0 l/m 0 min 0 min 44 W/m 19,3 km/h (3 Bft) 100,00 %
07.12.2019 15:10 9,5 C 8,9 C 8,3 C 88 % 1014,3 hPa 0,0 l/m 0 min 0 min 43 W/m 16,1 km/h (3 Bft) 97,87 %
07.12.2019 15:12 9,5 C 8,9 C 8,3 C 88 % 1014,3 hPa 0,0 l/m 0 min 0 min 40 W/m 25,7 km/h (4 Bft) 93,62 %
07.12.2019 15:14 9,5 C 8,9 C 8,3 C 88 % 1014,3 hPa 0,0 l/m 0 min 0 min 37 W/m 16,1 km/h (3 Bft) 97,87 %
07.12.2019 15:16 9,4 C 8,9 C 8,3 C 88 % 1014,3 hPa 0,0 l/m 0 min 0 min 34 W/m 16,1 km/h (3 Bft) 97,87 %
07.12.2019 15:18 9,4 C 8,9 C 8,3 C 88 % 1014,2 hPa 0,0 l/m 0 min 0 min 33 W/m 25,7 km/h (4 Bft) 97,87 %
07.12.2019 15:20 9,4 C 8,9 C 8,3 C 88 % 1014,3 hPa 0,0 l/m 0 min 0 min 30 W/m 16,1 km/h (3 Bft) 95,74 %
07.12.2019 15:22 9,4 C 8,9 C 8,3 C 88 % 1014,4 hPa 0,0 l/m 0 min 0 min 28 W/m 9,7 km/h (2 Bft) 97,83 %
07.12.2019 15:24 9,4 C 8,9 C 8,3 C 88 % 1014,4 hPa 0,0 l/m 0 min 0 min 30 W/m 9,7 km/h (2 Bft) 97,87 %
07.12.2019 15:26 9,4 C 8,9 C 8,3 C 88 % 1014,3 hPa 0,0 l/m 0 min 0 min 26 W/m 19,3 km/h (3 Bft) 95,74 %
07.12.2019 15:28 9,4 C 8,9 C 8,3 C 88 % 1014,4 hPa 0,0 l/m 0 min 0 min 24 W/m 6,4 km/h (2 Bft) 97,87 %
07.12.2019 15:30 9,4 C 8,9 C 8,3 C 88 % 1014,4 hPa 0,0 l/m 0 min 0 min 24 W/m 12,9 km/h (3 Bft) 97,87 %
07.12.2019 15:32 9,3 C 8,3 C 8,3 C 88 % 1014,4 hPa 0,0 l/m 0 min 0 min 25 W/m 12,9 km/h (3 Bft) 95,65 %
07.12.2019 15:34 9,3 C 8,3 C 8,3 C 88 % 1014,4 hPa 0,0 l/m 0 min 0 min 25 W/m 12,9 km/h (3 Bft) 97,87 %
07.12.2019 15:36 9,3 C 8,3 C 8,3 C 88 % 1014,4 hPa 0,0 l/m 0 min 0 min 23 W/m 12,9 km/h (3 Bft) 95,74 %
07.12.2019 15:38 9,3 C 8,3 C 7,8 C 88 % 1014,4 hPa 0,0 l/m 0 min 0 min 19 W/m 12,9 km/h (3 Bft) 93,62 %
07.12.2019 15:40 9,3 C 8,3 C 7,8 C 88 % 1014,5 hPa 0,0 l/m 0 min 0 min 18 W/m 12,9 km/h (3 Bft) 95,74 %
07.12.2019 15:42 9,3 C 8,3 C 7,8 C 88 % 1014,5 hPa 0,0 l/m 0 min 0 min 18 W/m 6,4 km/h (2 Bft) 95,74 %
07.12.2019 15:44 9,3 C 8,3 C 7,8 C 88 % 1014,5 hPa 0,0 l/m 0 min 0 min 16 W/m 12,9 km/h (3 Bft) 93,48 %
07.12.2019 15:46 9,3 C 8,3 C 7,8 C 88 % 1014,5 hPa 0,0 l/m 0 min 0 min 14 W/m 9,7 km/h (2 Bft) 95,74 %
07.12.2019 15:48 9,3 C 8,3 C 7,8 C 88 % 1014,6 hPa 0,0 l/m 0 min 0 min 15 W/m 16,1 km/h (3 Bft) 95,74 %
07.12.2019 15:50 9,3 C 8,3 C 7,8 C 88 % 1014,6 hPa 0,0 l/m 0 min 0 min 14 W/m 6,4 km/h (2 Bft) 95,74 %
07.12.2019 15:52 9,2 C 8,3 C 7,8 C 88 % 1014,6 hPa 0,0 l/m 0 min 0 min 12 W/m 6,4 km/h (2 Bft) 95,74 %
07.12.2019 15:54 9,2 C 8,3 C 7,8 C 88 % 1014,7 hPa 0,0 l/m 0 min 0 min 11 W/m 6,4 km/h (2 Bft) 97,87 %
07.12.2019 15:56 9,2 C 8,3 C 7,8 C 88 % 1014,7 hPa 0,0 l/m 0 min 0 min 11 W/m 12,9 km/h (3 Bft) 95,65 %
07.12.2019 15:58 9,2 C 8,3 C 7,8 C 88 % 1014,8 hPa 0,0 l/m 0 min 0 min 11 W/m 6,4 km/h (2 Bft) 98,04 %
07.12.2019 16:00 9,2 C 8,3 C 7,8 C 88 % 1014,8 hPa 0,0 l/m 0 min 0 min 9 W/m 6,4 km/h (2 Bft) 95,65 %
07.12.2019 16:02 9,2 C 8,3 C 7,8 C 88 % 1014,8 hPa 0,0 l/m 0 min 0 min 9 W/m 16,1 km/h (3 Bft) 95,74 %
07.12.2019 16:04 9,2 C 8,3 C 7,8 C 88 % 1014,9 hPa 0,0 l/m 0 min 0 min 7 W/m 6,4 km/h (2 Bft) 93,62 %
07.12.2019 16:06 9,2 C 8,3 C 7,8 C 88 % 1014,9 hPa 0,0 l/m 0 min 0 min 6 W/m 25,7 km/h (4 Bft) 97,87 %
07.12.2019 16:08 9,2 C 8,3 C 7,8 C 88 % 1014,9 hPa 0,0 l/m 0 min 0 min 5 W/m 19,3 km/h (3 Bft) 95,74 %
07.12.2019 16:10 9,2 C 8,3 C 7,8 C 88 % 1014,9 hPa 0,0 l/m 0 min 0 min 5 W/m 12,9 km/h (3 Bft) 93,62 %
07.12.2019 16:12 9,2 C 8,3 C 7,8 C 88 % 1015,0 hPa 0,0 l/m 0 min 0 min 5 W/m 12,9 km/h (3 Bft) 95,65 %
07.12.2019 16:14 9,2 C 8,3 C 7,8 C 88 % 1015,1 hPa 0,0 l/m 0 min 0 min 5 W/m 12,9 km/h (3 Bft) 95,74 %
07.12.2019 16:16 9,2 C 8,3 C 7,8 C 89 % 1015,1 hPa 0,0 l/m 0 min 0 min 0 W/m 9,7 km/h (2 Bft) 93,62 %
07.12.2019 16:18 9,1 C 8,3 C 7,8 C 89 % 1015,1 hPa 0,0 l/m 0 min 0 min 0 W/m 22,5 km/h (4 Bft) 95,74 %
07.12.2019 16:20 9,1 C 8,3 C 7,8 C 89 % 1015,1 hPa 0,0 l/m 0 min 0 min 0 W/m 12,9 km/h (3 Bft) 93,62 %
07.12.2019 16:22 9,1 C 8,3 C 7,8 C 89 % 1015,1 hPa 0,0 l/m 0 min 0 min 0 W/m 12,9 km/h (3 Bft) 95,65 %
07.12.2019 16:24 9,1 C 8,3 C 7,8 C 89 % 1015,1 hPa 0,0 l/m 0 min 0 min 0 W/m 12,9 km/h (3 Bft) 97,87 %
07.12.2019 16:26 9,1 C 8,3 C 7,8 C 89 % 1015,0 hPa 0,0 l/m 0 min 0 min 0 W/m 19,3 km/h (3 Bft) 97,87 %
07.12.2019 16:28 9,1 C 8,3 C 7,8 C 89 % 1015,1 hPa 0,0 l/m 0 min 0 min 0 W/m 12,9 km/h (3 Bft) 95,74 %
07.12.2019 16:30 9,1 C 8,3 C 7,8 C 89 % 1015,1 hPa 0,0 l/m 0 min 0 min 0 W/m 12,9 km/h (3 Bft) 95,74 %
07.12.2019 16:32 9,1 C 8,3 C 7,8 C 89 % 1015,1 hPa 0,0 l/m 0 min 0 min 0 W/m 6,4 km/h (2 Bft) 97,87 %
07.12.2019 16:34 9,1 C 8,3 C 7,8 C 89 % 1015,1 hPa 0,0 l/m 0 min 0 min 0 W/m 19,3 km/h (3 Bft) 97,83 %
07.12.2019 16:36 9,1 C 8,3 C 7,8 C 89 % 1015,2 hPa 0,0 l/m 0 min 0 min 0 W/m 19,3 km/h (3 Bft) 97,87 %
07.12.2019 16:38 9,1 C 8,3 C 7,8 C 89 % 1015,2 hPa 0,0 l/m 0 min 0 min 0 W/m 16,1 km/h (3 Bft) 93,62 %
07.12.2019 16:40 9,1 C 8,3 C 7,8 C 89 % 1015,2 hPa 0,0 l/m 0 min 0 min 0 W/m 12,9 km/h (3 Bft) 95,74 %
07.12.2019 16:42 9,1 C 8,3 C 7,8 C 89 % 1015,1 hPa 0,0 l/m 0 min 0 min 0 W/m 19,3 km/h (3 Bft) 97,87 %
07.12.2019 16:44 9,1 C 8,3 C 7,8 C 89 % 1015,1 hPa 0,0 l/m 0 min 0 min 0 W/m 19,3 km/h (3 Bft) 97,87 %
07.12.2019 16:46 9,1 C 8,3 C 7,8 C 89 % 1015,0 hPa 0,0 l/m 0 min 0 min 0 W/m 16,1 km/h (3 Bft) 97,83 %
07.12.2019 16:48 9,1 C 8,3 C 7,8 C 89 % 1015,0 hPa 0,0 l/m 0 min 0 min 0 W/m 16,1 km/h (3 Bft) 95,74 %
07.12.2019 16:50 9,1 C 8,3 C 7,8 C 89 % 1015,1 hPa 0,0 l/m 0 min 0 min 0 W/m 16,1 km/h (3 Bft) 97,87 %
07.12.2019 16:52 9,1 C 8,3 C 7,8 C 89 % 1015,1 hPa 0,0 l/m 0 min 0 min 0 W/m 12,9 km/h (3 Bft) 97,87 %
07.12.2019 16:54 9,1 C 8,3 C 7,8 C 89 % 1015,0 hPa 0,0 l/m 0 min 0 min 0 W/m 6,4 km/h (2 Bft) 97,87 %
07.12.2019 16:56 9,1 C 8,3 C 7,8 C 89 % 1015,0 hPa 0,0 l/m 0 min 0 min 0 W/m 22,5 km/h (4 Bft) 97,87 %
07.12.2019 16:58 9,1 C 8,3 C 7,8 C 89 % 1015,1 hPa 0,0 l/m 0 min 0 min 0 W/m 16,1 km/h (3 Bft) 97,83 %
07.12.2019 17:00 9,1 C 8,3 C 7,8 C 89 % 1015,1 hPa 0,0 l/m 0 min 0 min 0 W/m 16,1 km/h (3 Bft) 97,87 %
07.12.2019 17:02 9,1 C 8,3 C 7,8 C 89 % 1015,1 hPa 0,0 l/m 0 min 0 min 0 W/m 16,1 km/h (3 Bft) 97,87 %
07.12.2019 17:04 9,1 C 8,3 C 7,8 C 89 % 1015,1 hPa 0,0 l/m 0 min 0 min 0 W/m 6,4 km/h (2 Bft) 97,87 %
07.12.2019 17:06 9,1 C 8,3 C 7,8 C 89 % 1015,1 hPa 0,0 l/m 0 min 0 min 0 W/m 12,9 km/h (3 Bft) 97,87 %
07.12.2019 17:08 9,1 C 8,3 C 7,8 C 89 % 1015,1 hPa 0,0 l/m 0 min 0 min 0 W/m 6,4 km/h (2 Bft) 97,83 %
07.12.2019 17:10 9,1 C 8,3 C 7,8 C 89 % 1015,1 hPa 0,0 l/m 0 min 0 min 0 W/m 16,1 km/h (3 Bft) 100,00 %
07.12.2019 17:12 9,1 C 8,3 C 7,8 C 89 % 1015,2 hPa 0,0 l/m 0 min 0 min 0 W/m 12,9 km/h (3 Bft) 97,87 %
07.12.2019 17:14 9,1 C 8,3 C 7,8 C 89 % 1015,2 hPa 0,0 l/m 0 min 0 min 0 W/m 9,7 km/h (2 Bft) 100,00 %
07.12.2019 17:16 9,1 C 8,3 C 7,8 C 89 % 1015,1 hPa 0,0 l/m 0 min 0 min 0 W/m 12,9 km/h (3 Bft) 100,00 %
07.12.2019 17:18 9,1 C 8,3 C 7,8 C 89 % 1015,2 hPa 0,0 l/m 0 min 0 min 0 W/m 19,3 km/h (3 Bft) 100,00 %
07.12.2019 17:20 9,1 C 8,3 C 7,8 C 89 % 1015,2 hPa 0,0 l/m 0 min 0 min 0 W/m 12,9 km/h (3 Bft) 100,00 %
07.12.2019 17:22 9,1 C 8,3 C 7,8 C 89 % 1015,2 hPa 0,0 l/m 0 min 0 min 0 W/m 12,9 km/h (3 Bft) 100,00 %
07.12.2019 17:24 9,0 C 8,3 C 7,8 C 89 % 1015,2 hPa 0,0 l/m 0 min 0 min 0 W/m 19,3 km/h (3 Bft) 100,00 %
07.12.2019 17:26 9,0 C 8,3 C 7,8 C 89 % 1015,2 hPa 0,0 l/m 0 min 0 min 0 W/m 12,9 km/h (3 Bft) 100,00 %
07.12.2019 17:28 9,0 C 8,3 C 7,8 C 89 % 1015,2 hPa 0,0 l/m 0 min 0 min 0 W/m 16,1 km/h (3 Bft) 100,00 %
07.12.2019 17:30 9,0 C 8,3 C 7,8 C 89 % 1015,3 hPa 0,0 l/m 0 min 0 min 0 W/m 12,9 km/h (3 Bft) 100,00 %
07.12.2019 17:32 9,0 C 8,3 C 7,8 C 89 % 1015,3 hPa 0,0 l/m 0 min 0 min 0 W/m 12,9 km/h (3 Bft) 100,00 %
07.12.2019 17:34 9,0 C 8,3 C 7,8 C 89 % 1015,3 hPa 0,0 l/m 0 min 0 min 0 W/m 12,9 km/h (3 Bft) 97,87 %
07.12.2019 17:36 9,0 C 8,3 C 7,8 C 89 % 1015,2 hPa 0,0 l/m 0 min 0 min 0 W/m 16,1 km/h (3 Bft) 100,00 %
07.12.2019 17:38 8,9 C 8,3 C 7,8 C 89 % 1015,3 hPa 0,0 l/m 0 min 0 min 0 W/m 6,4 km/h (2 Bft) 97,87 %
07.12.2019 17:40 8,9 C 8,3 C 7,8 C 89 % 1015,2 hPa 0,0 l/m 0 min 0 min 0 W/m 6,4 km/h (2 Bft) 95,74 %
07.12.2019 17:42 8,9 C 8,3 C 7,8 C 88 % 1015,2 hPa 0,0 l/m 0 min 0 min 0 W/m 12,9 km/h (3 Bft) 95,74 %
07.12.2019 17:44 8,9 C 8,3 C 7,8 C 88 % 1015,2 hPa 0,0 l/m 0 min 0 min 0 W/m 12,9 km/h (3 Bft) 97,83 %
07.12.2019 17:46 8,9 C 8,3 C 7,8 C 88 % 1015,2 hPa 0,0 l/m 0 min 0 min 0 W/m 12,9 km/h (3 Bft) 97,87 %
07.12.2019 17:48 8,9 C 8,3 C 7,8 C 88 % 1015,3 hPa 0,0 l/m 0 min 0 min 0 W/m 12,9 km/h (3 Bft) 97,87 %
07.12.2019 17:50 8,9 C 8,3 C 7,8 C 88 % 1015,2 hPa 0,0 l/m 0 min 0 min 0 W/m 12,9 km/h (3 Bft) 93,62 %
07.12.2019 17:52 8,9 C 8,3 C 7,8 C 88 % 1015,2 hPa 0,0 l/m 0 min 0 min 0 W/m 19,3 km/h (3 Bft) 97,87 %
07.12.2019 17:54 8,9 C 8,3 C 7,8 C 88 % 1015,2 hPa 0,0 l/m 0 min 0 min 0 W/m 19,3 km/h (3 Bft) 95,74 %
07.12.2019 17:56 8,9 C 8,3 C 7,8 C 88 % 1015,2 hPa 0,0 l/m 0 min 0 min 0 W/m 16,1 km/h (3 Bft) 97,83 %
07.12.2019 17:58 8,9 C 8,3 C 7,8 C 88 % 1015,2 hPa 0,0 l/m 0 min 0 min 0 W/m 19,3 km/h (3 Bft) 95,74 %
07.12.2019 18:00 8,9 C 8,3 C 7,8 C 88 % 1015,2 hPa 0,0 l/m 0 min 0 min 0 W/m 16,1 km/h (3 Bft) 97,87 %
07.12.2019 18:02 8,9 C 8,3 C 7,8 C 88 % 1015,2 hPa 0,0 l/m 0 min 0 min 0 W/m 25,7 km/h (4 Bft) 97,87 %
07.12.2019 18:04 8,9 C 8,3 C 7,8 C 88 % 1015,3 hPa 0,0 l/m 0 min 0 min 0 W/m 16,1 km/h (3 Bft) 97,87 %
07.12.2019 18:06 8,9 C 8,3 C 7,8 C 88 % 1015,2 hPa 0,0 l/m 0 min 0 min 0 W/m 19,3 km/h (3 Bft) 97,87 %
07.12.2019 18:08 8,9 C 8,3 C 7,8 C 88 % 1015,2 hPa 0,0 l/m 0 min 0 min 0 W/m 12,9 km/h (3 Bft) 97,83 %
07.12.2019 18:10 8,9 C 8,3 C 7,8 C 87 % 1015,3 hPa 0,0 l/m 0 min 0 min 0 W/m 9,7 km/h (2 Bft) 97,87 %
07.12.2019 18:12 8,9 C 8,3 C 7,8 C 87 % 1015,3 hPa 0,0 l/m 0 min 0 min 0 W/m 16,1 km/h (3 Bft) 95,74 %
07.12.2019 18:14 8,9 C 8,3 C 7,8 C 87 % 1015,2 hPa 0,0 l/m 0 min 0 min 0 W/m 16,1 km/h (3 Bft) 97,87 %
07.12.2019 18:16 8,9 C 8,3 C 7,8 C 87 % 1015,3 hPa 0,0 l/m 0 min 0 min 0 W/m 6,4 km/h (2 Bft) 97,87 %
07.12.2019 18:18 8,9 C 8,3 C 7,8 C 87 % 1015,3 hPa 0,0 l/m 0 min 0 min 0 W/m 6,4 km/h (2 Bft) 97,83 %
07.12.2019 18:20 8,9 C 8,3 C 7,8 C 87 % 1015,3 hPa 0,0 l/m 0 min 0 min 0 W/m 12,9 km/h (3 Bft) 97,87 %
07.12.2019 18:22 8,9 C 8,3 C 7,8 C 87 % 1015,4 hPa 0,0 l/m 0 min 0 min 0 W/m 6,4 km/h (2 Bft) 100,00 %
07.12.2019 18:24 8,9 C 8,3 C 7,8 C 87 % 1015,4 hPa 0,0 l/m 0 min 0 min 0 W/m 12,9 km/h (3 Bft) 97,87 %
07.12.2019 18:26 8,9 C 8,3 C 7,8 C 87 % 1015,4 hPa 0,0 l/m 0 min 0 min 0 W/m 12,9 km/h (3 Bft) 100,00 %
07.12.2019 18:28 8,9 C 8,3 C 7,8 C 86 % 1015,3 hPa 0,0 l/m 0 min 0 min 0 W/m 12,9 km/h (3 Bft) 97,87 %
07.12.2019 18:30 8,9 C 8,3 C 7,8 C 86 % 1015,4 hPa 0,0 l/m 0 min 0 min 0 W/m 16,1 km/h (3 Bft) 100,00 %
07.12.2019 18:32 8,8 C 8,3 C 7,8 C 86 % 1015,4 hPa 0,0 l/m 0 min 0 min 0 W/m 19,3 km/h (3 Bft) 97,87 %
07.12.2019 18:34 8,9 C 8,3 C 7,8 C 86 % 1015,4 hPa 0,0 l/m 0 min 0 min 0 W/m 16,1 km/h (3 Bft) 100,00 %
07.12.2019 18:36 8,9 C 8,3 C 7,8 C 86 % 1015,4 hPa 0,0 l/m 0 min 0 min 0 W/m 25,7 km/h (4 Bft) 100,00 %
07.12.2019 18:38 8,8 C 8,3 C 7,8 C 86 % 1015,4 hPa 0,0 l/m 0 min 0 min 0 W/m 12,9 km/h (3 Bft) 100,00 %
07.12.2019 18:40 8,9 C 8,3 C 7,8 C 86 % 1015,5 hPa 0,0 l/m 0 min 0 min 0 W/m 12,9 km/h (3 Bft) 100,00 %
07.12.2019 18:42 8,9 C 8,3 C 7,8 C 86 % 1015,5 hPa 0,0 l/m 0 min 0 min 0 W/m 19,3 km/h (3 Bft) 100,00 %
07.12.2019 18:44 8,9 C 8,3 C 7,8 C 86 % 1015,5 hPa 0,0 l/m 0 min 0 min 0 W/m 12,9 km/h (3 Bft) 97,87 %
07.12.2019 18:46 8,8 C 8,3 C 7,8 C 85 % 1015,6 hPa 0,0 l/m 0 min 0 min 0 W/m 6,4 km/h (2 Bft) 97,87 %
07.12.2019 18:48 8,8 C 8,3 C 7,8 C 85 % 1015,6 hPa 0,0 l/m 0 min 0 min 0 W/m 12,9 km/h (3 Bft) 97,87 %
07.12.2019 18:50 8,8 C 8,3 C 7,8 C 85 % 1015,6 hPa 0,0 l/m 0 min 0 min 0 W/m 16,1 km/h (3 Bft) 97,87 %
07.12.2019 18:52 8,8 C 8,3 C 7,2 C 85 % 1015,7 hPa 0,0 l/m 0 min 0 min 0 W/m 6,4 km/h (2 Bft) 93,62 %
07.12.2019 18:54 8,8 C 8,3 C 7,8 C 85 % 1015,7 hPa 0,0 l/m 0 min 0 min 0 W/m 12,9 km/h (3 Bft) 95,65 %
07.12.2019 18:56 8,8 C 8,3 C 7,8 C 85 % 1015,6 hPa 0,0 l/m 0 min 0 min 0 W/m 12,9 km/h (3 Bft) 95,74 %
07.12.2019 18:58 8,8 C 8,3 C 7,8 C 85 % 1015,6 hPa 0,0 l/m 0 min 0 min 0 W/m 19,3 km/h (3 Bft) 95,74 %
07.12.2019 19:00 8,8 C 8,3 C 7,2 C 85 % 1015,6 hPa 0,0 l/m 0 min 0 min 0 W/m 6,4 km/h (2 Bft) 97,87 %
07.12.2019 19:02 8,8 C 8,3 C 7,2 C 85 % 1015,6 hPa 0,0 l/m 0 min 0 min 0 W/m 6,4 km/h (2 Bft) 97,87 %
07.12.2019 19:04 8,8 C 8,3 C 7,2 C 85 % 1015,5 hPa 0,0 l/m 0 min 0 min 0 W/m 6,4 km/h (2 Bft) 95,74 %
07.12.2019 19:06 8,8 C 7,8 C 7,2 C 85 % 1015,5 hPa 0,0 l/m 0 min 0 min 0 W/m 6,4 km/h (2 Bft) 95,65 %
07.12.2019 19:08 8,8 C 7,8 C 7,2 C 85 % 1015,5 hPa 0,0 l/m 0 min 0 min 0 W/m 6,4 km/h (2 Bft) 95,74 %
07.12.2019 19:10 8,8 C 7,8 C 7,2 C 85 % 1015,5 hPa 0,0 l/m 0 min 0 min 0 W/m 6,4 km/h (2 Bft) 91,49 %
07.12.2019 19:12 8,8 C 7,8 C 7,2 C 85 % 1015,5 hPa 0,0 l/m 0 min 0 min 0 W/m 6,4 km/h (2 Bft) 95,74 %
07.12.2019 19:14 8,8 C 7,8 C 7,2 C 85 % 1015,5 hPa 0,0 l/m 0 min 0 min 0 W/m 12,9 km/h (3 Bft) 95,74 %
07.12.2019 19:16 8,8 C 8,3 C 7,2 C 85 % 1015,5 hPa 0,0 l/m 0 min 0 min 0 W/m 12,9 km/h (3 Bft) 95,65 %
07.12.2019 19:18 8,8 C 8,3 C 7,2 C 85 % 1015,6 hPa 0,0 l/m 0 min 0 min 0 W/m 12,9 km/h (3 Bft) 95,74 %
07.12.2019 19:20 8,8 C 8,3 C 7,2 C 85 % 1015,6 hPa 0,0 l/m 0 min 0 min 0 W/m 12,9 km/h (3 Bft) 95,74 %
07.12.2019 19:22 8,8 C 8,3 C 7,2 C 85 % 1015,6 hPa 0,0 l/m 0 min 0 min 0 W/m 12,9 km/h (3 Bft) 95,74 %
07.12.2019 19:24 8,8 C 8,3 C 7,2 C 84 % 1015,6 hPa 0,0 l/m 0 min 0 min 0 W/m 16,1 km/h (3 Bft) 91,49 %
07.12.2019 19:26 8,8 C 8,3 C 7,2 C 84 % 1015,7 hPa 0,0 l/m 0 min 0 min 0 W/m 16,1 km/h (3 Bft) 95,74 %
07.12.2019 19:28 8,8 C 8,3 C 7,2 C 84 % 1015,7 hPa 0,0 l/m 0 min 0 min 0 W/m 6,4 km/h (2 Bft) 95,74 %
07.12.2019 19:30 8,8 C 8,3 C 7,2 C 84 % 1015,7 hPa 0,0 l/m 0 min 0 min 0 W/m 12,9 km/h (3 Bft) 95,65 %
07.12.2019 19:32 8,8 C 8,3 C 7,2 C 84 % 1015,7 hPa 0,0 l/m 0 min 0 min 0 W/m 12,9 km/h (3 Bft) 93,62 %
07.12.2019 19:34 8,8 C 8,3 C 7,2 C 84 % 1015,6 hPa 0,0 l/m 0 min 0 min 0 W/m 12,9 km/h (3 Bft) 91,49 %
07.12.2019 19:36 8,8 C 8,3 C 7,8 C 85 % 1015,6 hPa 0,0 l/m 0 min 0 min 0 W/m 19,3 km/h (3 Bft) 93,62 %
07.12.2019 19:38 8,8 C 8,3 C 7,8 C 85 % 1015,7 hPa 0,0 l/m 0 min 0 min 0 W/m 12,9 km/h (3 Bft) 97,87 %
07.12.2019 19:40 8,8 C 8,3 C 7,8 C 85 % 1015,6 hPa 0,0 l/m 0 min 0 min 0 W/m 22,5 km/h (4 Bft) 97,83 %
07.12.2019 19:42 8,8 C 8,3 C 7,8 C 85 % 1015,7 hPa 0,0 l/m 0 min 0 min 0 W/m 19,3 km/h (3 Bft) 97,87 %
07.12.2019 19:44 8,8 C 8,3 C 7,8 C 85 % 1015,7 hPa 0,0 l/m 0 min 0 min 0 W/m 16,1 km/h (3 Bft) 95,74 %
07.12.2019 19:46 8,8 C 8,3 C 7,8 C 85 % 1015,6 hPa 0,0 l/m 0 min 0 min 0 W/m 22,5 km/h (4 Bft) 97,87 %
07.12.2019 19:48 8,8 C 8,3 C 7,8 C 85 % 1015,7 hPa 0,0 l/m 0 min 0 min 0 W/m 16,1 km/h (3 Bft) 97,87 %
07.12.2019 19:50 8,8 C 8,3 C 7,8 C 85 % 1015,6 hPa 0,0 l/m 0 min 0 min 0 W/m 16,1 km/h (3 Bft) 97,87 %
07.12.2019 19:52 8,8 C 8,3 C 7,8 C 85 % 1015,6 hPa 0,0 l/m 0 min 0 min 0 W/m 19,3 km/h (3 Bft) 97,83 %
07.12.2019 19:54 8,8 C 8,3 C 7,8 C 85 % 1015,5 hPa 0,0 l/m 0 min 0 min 0 W/m 16,1 km/h (3 Bft) 95,74 %
07.12.2019 19:56 8,8 C 8,3 C 7,8 C 85 % 1015,5 hPa 0,0 l/m 0 min 0 min 0 W/m 16,1 km/h (3 Bft) 95,74 %
07.12.2019 19:58 8,8 C 8,3 C 7,8 C 85 % 1015,5 hPa 0,0 l/m 0 min 0 min 0 W/m 19,3 km/h (3 Bft) 74,47 %
07.12.2019 20:00 8,8 C 8,3 C 7,8 C 85 % 1015,6 hPa 0,0 l/m 0 min 0 min 0 W/m 19,3 km/h (3 Bft) 78,95 %
07.12.2019 20:02 8,8 C 8,3 C 7,8 C 85 % 1015,6 hPa 0,0 l/m 0 min 0 min 0 W/m 16,1 km/h (3 Bft) 100,00 %
07.12.2019 20:04 8,8 C 7,8 C 7,2 C 85 % 1015,5 hPa 0,0 l/m 0 min 0 min 0 W/m 16,1 km/h (3 Bft) 100,00 %
07.12.2019 20:06 8,8 C 8,3 C 7,2 C 86 % 1015,5 hPa 0,0 l/m 0 min 0 min 0 W/m 19,3 km/h (3 Bft) 100,00 %
07.12.2019 20:08 8,8 C 7,8 C 7,2 C 86 % 1015,5 hPa 0,0 l/m 0 min 0 min 0 W/m 16,1 km/h (3 Bft) 100,00 %
07.12.2019 20:10 8,8 C 7,8 C 7,2 C 86 % 1015,5 hPa 0,0 l/m 0 min 0 min 0 W/m 12,9 km/h (3 Bft) 100,00 %
07.12.2019 20:12 8,8 C 8,3 C 7,2 C 86 % 1015,5 hPa 0,0 l/m 0 min 0 min 0 W/m 25,7 km/h (4 Bft) 97,87 %
07.12.2019 20:14 8,8 C 8,3 C 7,8 C 86 % 1015,5 hPa 0,0 l/m 0 min 0 min 0 W/m 22,5 km/h (4 Bft) 93,62 %
07.12.2019 20:16 8,8 C 8,3 C 7,8 C 86 % 1015,6 hPa 0,0 l/m 0 min 0 min 0 W/m 19,3 km/h (3 Bft) 97,83 %
07.12.2019 20:18 8,8 C 8,3 C 7,2 C 86 % 1015,5 hPa 0,0 l/m 0 min 0 min 0 W/m 16,1 km/h (3 Bft) 97,87 %
07.12.2019 20:20 8,8 C 7,8 C 7,2 C 86 % 1015,5 hPa 0,0 l/m 0 min 0 min 0 W/m 6,4 km/h (2 Bft) 95,74 %
07.12.2019 20:22 8,8 C 7,8 C 7,2 C 86 % 1015,5 hPa 0,0 l/m 0 min 0 min 0 W/m 12,9 km/h (3 Bft) 97,87 %
07.12.2019 20:24 8,8 C 7,8 C 7,2 C 86 % 1015,5 hPa 0,0 l/m 0 min 0 min 0 W/m 22,5 km/h (4 Bft) 97,87 %
07.12.2019 20:26 8,8 C 7,8 C 7,8 C 87 % 1015,5 hPa 0,0 l/m 0 min 0 min 0 W/m 19,3 km/h (3 Bft) 97,83 %
07.12.2019 20:28 8,8 C 8,3 C 7,2 C 87 % 1015,4 hPa 0,0 l/m 0 min 0 min 0 W/m 16,1 km/h (3 Bft) 97,87 %
07.12.2019 20:30 8,8 C 8,3 C 7,8 C 87 % 1015,4 hPa 0,0 l/m 0 min 0 min 0 W/m 16,1 km/h (3 Bft) 95,74 %
07.12.2019 20:32 8,8 C 7,8 C 7,2 C 87 % 1015,4 hPa 0,0 l/m 0 min 0 min 0 W/m 19,3 km/h (3 Bft) 97,87 %
07.12.2019 20:34 8,8 C 7,8 C 7,8 C 87 % 1015,3 hPa 0,0 l/m 0 min 0 min 0 W/m 12,9 km/h (3 Bft) 97,87 %
07.12.2019 20:36 8,8 C 7,8 C 7,2 C 87 % 1015,3 hPa 0,0 l/m 0 min 0 min 0 W/m 12,9 km/h (3 Bft) 97,87 %
07.12.2019 20:38 8,8 C 7,8 C 7,2 C 87 % 1015,3 hPa 0,0 l/m 0 min 0 min 0 W/m 16,1 km/h (3 Bft) 97,83 %
07.12.2019 20:40 8,8 C 7,8 C 7,2 C 87 % 1015,2 hPa 0,0 l/m 0 min 0 min 0 W/m 12,9 km/h (3 Bft) 97,87 %
07.12.2019 20:42 8,8 C 7,8 C 7,2 C 87 % 1015,3 hPa 0,0 l/m 0 min 0 min 0 W/m 16,1 km/h (3 Bft) 97,87 %
07.12.2019 20:44 8,8 C 7,8 C 7,2 C 87 % 1015,2 hPa 0,0 l/m 0 min 0 min 0 W/m 25,7 km/h (4 Bft) 97,87 %
07.12.2019 20:46 8,8 C 7,8 C 7,2 C 87 % 1015,2 hPa 0,0 l/m 0 min 0 min 0 W/m 16,1 km/h (3 Bft) 97,87 %
07.12.2019 20:48 8,8 C 7,8 C 7,2 C 87 % 1015,2 hPa 0,0 l/m 0 min 0 min 0 W/m 16,1 km/h (3 Bft) 95,74 %
07.12.2019 20:50 8,8 C 7,8 C 7,2 C 87 % 1015,1 hPa 0,0 l/m 0 min 0 min 0 W/m 19,3 km/h (3 Bft) 97,83 %
07.12.2019 20:52 8,8 C 7,8 C 7,2 C 87 % 1015,1 hPa 0,0 l/m 0 min 0 min 0 W/m 19,3 km/h (3 Bft) 97,87 %
07.12.2019 20:54 8,8 C 7,8 C 7,2 C 88 % 1015,1 hPa 0,0 l/m 0 min 0 min 0 W/m 22,5 km/h (4 Bft) 100,00 %
07.12.2019 20:56 8,8 C 7,8 C 7,2 C 88 % 1015,1 hPa 0,0 l/m 0 min 0 min 0 W/m 19,3 km/h (3 Bft) 95,74 %
07.12.2019 20:58 8,8 C 7,8 C 7,2 C 88 % 1015,1 hPa 0,0 l/m 0 min 0 min 0 W/m 19,3 km/h (3 Bft) 97,87 %
07.12.2019 21:00 8,8 C 7,8 C 7,2 C 88 % 1015,1 hPa 0,0 l/m 0 min 0 min 0 W/m 19,3 km/h (3 Bft) 100,00 %
07.12.2019 21:02 8,8 C 7,8 C 7,2 C 88 % 1015,0 hPa 0,0 l/m 0 min 0 min 0 W/m 19,3 km/h (3 Bft) 100,00 %
07.12.2019 21:04 8,7 C 7,8 C 7,2 C 88 % 1015,0 hPa 0,0 l/m 0 min 0 min 0 W/m 22,5 km/h (4 Bft) 100,00 %
07.12.2019 21:06 8,7 C 7,8 C 7,2 C 88 % 1015,0 hPa 0,0 l/m 0 min 0 min 0 W/m 16,1 km/h (3 Bft) 95,74 %
07.12.2019 21:08 8,7 C 7,8 C 7,2 C 88 % 1015,0 hPa 0,0 l/m 0 min 0 min 0 W/m 19,3 km/h (3 Bft) 100,00 %
07.12.2019 21:10 8,7 C 7,8 C 7,2 C 88 % 1014,9 hPa 0,0 l/m 0 min 0 min 0 W/m 16,1 km/h (3 Bft) 100,00 %
07.12.2019 21:12 8,7 C 7,8 C 7,2 C 88 % 1014,9 hPa 0,0 l/m 0 min 0 min 0 W/m 29,0 km/h (5 Bft) 100,00 %
07.12.2019 21:14 8,7 C 7,8 C 7,8 C 88 % 1014,9 hPa 0,0 l/m 0 min 0 min 0 W/m 19,3 km/h (3 Bft) 100,00 %
07.12.2019 21:16 8,7 C 8,3 C 7,8 C 88 % 1014,9 hPa 0,0 l/m 0 min 0 min 0 W/m 25,7 km/h (4 Bft) 100,00 %
07.12.2019 21:18 8,7 C 7,8 C 7,2 C 88 % 1014,9 hPa 0,0 l/m 0 min 0 min 0 W/m 16,1 km/h (3 Bft) 100,00 %
07.12.2019 21:20 8,7 C 8,3 C 7,2 C 88 % 1014,9 hPa 0,0 l/m 0 min 0 min 0 W/m 22,5 km/h (4 Bft) 100,00 %
07.12.2019 21:22 8,7 C 8,3 C 7,8 C 88 % 1014,9 hPa 0,0 l/m 0 min 0 min 0 W/m 25,7 km/h (4 Bft) 100,00 %
07.12.2019 21:24 8,7 C 8,3 C 7,8 C 88 % 1014,8 hPa 0,0 l/m 0 min 0 min 0 W/m 22,5 km/h (4 Bft) 100,00 %
07.12.2019 21:26 8,8 C 8,3 C 7,2 C 88 % 1014,8 hPa 0,0 l/m 0 min 0 min 0 W/m 19,3 km/h (3 Bft) 100,00 %
07.12.2019 21:28 8,8 C 8,3 C 7,8 C 88 % 1014,9 hPa 0,0 l/m 0 min 0 min 0 W/m 29,0 km/h (5 Bft) 100,00 %
07.12.2019 21:30 8,8 C 8,3 C 7,8 C 88 % 1014,8 hPa 0,0 l/m 0 min 0 min 0 W/m 22,5 km/h (4 Bft) 100,00 %
07.12.2019 21:32 8,8 C 8,3 C 7,8 C 88 % 1014,7 hPa 0,0 l/m 0 min 0 min 0 W/m 12,9 km/h (3 Bft) 100,00 %
07.12.2019 21:34 8,8 C 8,3 C 7,8 C 88 % 1014,8 hPa 0,0 l/m 0 min 0 min 0 W/m 29,0 km/h (5 Bft) 100,00 %
07.12.2019 21:36 8,8 C 8,3 C 7,8 C 88 % 1014,8 hPa 0,0 l/m 0 min 0 min 0 W/m 19,3 km/h (3 Bft) 100,00 %
07.12.2019 21:38 8,8 C 8,3 C 7,8 C 88 % 1014,8 hPa 0,0 l/m 0 min 0 min 0 W/m 22,5 km/h (4 Bft) 100,00 %
07.12.2019 21:40 8,8 C 8,3 C 7,8 C 89 % 1014,7 hPa 0,0 l/m 0 min 0 min 0 W/m 22,5 km/h (4 Bft) 100,00 %
07.12.2019 21:42 8,8 C 8,3 C 7,8 C 89 % 1014,7 hPa 0,0 l/m 0 min 0 min 0 W/m 16,1 km/h (3 Bft) 97,87 %
07.12.2019 21:44 8,8 C 8,3 C 7,8 C 89 % 1014,7 hPa 0,0 l/m 0 min 0 min 0 W/m 22,5 km/h (4 Bft) 100,00 %
07.12.2019 21:46 8,8 C 8,3 C 7,8 C 89 % 1014,7 hPa 0,0 l/m 0 min 0 min 0 W/m 19,3 km/h (3 Bft) 100,00 %
07.12.2019 21:48 8,8 C 8,3 C 7,8 C 89 % 1014,6 hPa 0,0 l/m 0 min 0 min 0 W/m 25,7 km/h (4 Bft) 97,83 %
07.12.2019 21:50 8,8 C 8,3 C 7,8 C 89 % 1014,6 hPa 0,0 l/m 0 min 0 min 0 W/m 25,7 km/h (4 Bft) 100,00 %
07.12.2019 21:52 8,8 C 8,3 C 7,8 C 89 % 1014,5 hPa 0,0 l/m 0 min 0 min 0 W/m 16,1 km/h (3 Bft) 97,87 %
07.12.2019 21:54 8,8 C 8,3 C 7,8 C 89 % 1014,5 hPa 0,0 l/m 0 min 0 min 0 W/m 16,1 km/h (3 Bft) 100,00 %
07.12.2019 21:56 8,8 C 7,8 C 7,2 C 89 % 1014,5 hPa 0,0 l/m 0 min 0 min 0 W/m 16,1 km/h (3 Bft) 97,87 %
07.12.2019 21:58 8,8 C 8,3 C 7,2 C 89 % 1014,4 hPa 0,0 l/m 0 min 0 min 0 W/m 19,3 km/h (3 Bft) 100,00 %
07.12.2019 22:00 8,8 C 8,3 C 7,2 C 89 % 1014,5 hPa 0,0 l/m 0 min 0 min 0 W/m 12,9 km/h (3 Bft) 97,83 %
07.12.2019 22:02 8,8 C 8,3 C 7,2 C 89 % 1014,5 hPa 0,0 l/m 0 min 0 min 0 W/m 16,1 km/h (3 Bft) 95,74 %
07.12.2019 22:04 8,8 C 8,3 C 7,8 C 89 % 1014,5 hPa 0,0 l/m 0 min 0 min 0 W/m 19,3 km/h (3 Bft) 93,62 %
07.12.2019 22:06 8,8 C 8,3 C 7,8 C 89 % 1014,5 hPa 0,0 l/m 0 min 0 min 0 W/m 19,3 km/h (3 Bft) 95,74 %
07.12.2019 22:08 8,8 C 8,3 C 7,8 C 89 % 1014,4 hPa 0,0 l/m 0 min 0 min 0 W/m 19,3 km/h (3 Bft) 95,74 %
07.12.2019 22:10 8,8 C 8,3 C 7,8 C 89 % 1014,4 hPa 0,0 l/m 0 min 0 min 0 W/m 22,5 km/h (4 Bft) 95,65 %
07.12.2019 22:12 8,8 C 8,3 C 7,8 C 89 % 1014,4 hPa 0,0 l/m 0 min 0 min 0 W/m 16,1 km/h (3 Bft) 93,62 %
07.12.2019 22:14 8,8 C 8,3 C 7,8 C 89 % 1014,4 hPa 0,0 l/m 0 min 0 min 0 W/m 19,3 km/h (3 Bft) 95,74 %
07.12.2019 22:16 8,8 C 8,3 C 7,8 C 89 % 1014,4 hPa 0,0 l/m 0 min 0 min 0 W/m 16,1 km/h (3 Bft) 95,74 %
07.12.2019 22:18 8,8 C 8,3 C 7,8 C 89 % 1014,4 hPa 0,0 l/m 0 min 0 min 0 W/m 19,3 km/h (3 Bft) 95,74 %
07.12.2019 22:20 8,8 C 8,3 C 7,8 C 89 % 1014,4 hPa 0,0 l/m 0 min 0 min 0 W/m 12,9 km/h (3 Bft) 93,62 %
07.12.2019 22:22 8,8 C 8,3 C 7,8 C 89 % 1014,4 hPa 0,0 l/m 0 min 0 min 0 W/m 16,1 km/h (3 Bft) 95,65 %
07.12.2019 22:24 8,8 C 8,3 C 7,8 C 89 % 1014,4 hPa 0,0 l/m 0 min 0 min 0 W/m 16,1 km/h (3 Bft) 95,74 %
07.12.2019 22:26 8,8 C 8,3 C 7,8 C 89 % 1014,5 hPa 0,0 l/m 0 min 0 min 0 W/m 16,1 km/h (3 Bft) 95,74 %
07.12.2019 22:28 8,8 C 8,3 C 7,8 C 89 % 1014,5 hPa 0,0 l/m 0 min 0 min 0 W/m 16,1 km/h (3 Bft) 95,74 %
07.12.2019 22:30 8,8 C 8,3 C 7,8 C 89 % 1014,5 hPa 0,0 l/m 0 min 0 min 0 W/m 19,3 km/h (3 Bft) 95,74 %
07.12.2019 22:32 8,8 C 8,3 C 7,8 C 89 % 1014,4 hPa 0,0 l/m 0 min 0 min 0 W/m 16,1 km/h (3 Bft) 95,74 %
07.12.2019 22:34 8,8 C 8,3 C 7,8 C 89 % 1014,4 hPa 0,0 l/m 0 min 0 min 0 W/m 19,3 km/h (3 Bft) 95,65 %
07.12.2019 22:36 8,8 C 8,3 C 7,8 C 89 % 1014,4 hPa 0,0 l/m 0 min 0 min 0 W/m 32,2 km/h (5 Bft) 95,74 %
07.12.2019 22:38 8,8 C 8,3 C 7,8 C 89 % 1014,4 hPa 0,0 l/m 0 min 0 min 0 W/m 19,3 km/h (3 Bft) 91,49 %
07.12.2019 22:40 8,8 C 8,3 C 7,8 C 89 % 1014,4 hPa 0,0 l/m 0 min 0 min 0 W/m 19,3 km/h (3 Bft) 93,62 %
07.12.2019 22:42 8,8 C 8,3 C 7,8 C 89 % 1014,5 hPa 0,0 l/m 0 min 0 min 0 W/m 22,5 km/h (4 Bft) 93,62 %
07.12.2019 22:44 8,8 C 8,3 C 7,8 C 89 % 1014,5 hPa 0,0 l/m 0 min 0 min 0 W/m 22,5 km/h (4 Bft) 93,62 %
07.12.2019 22:46 8,8 C 8,3 C 7,8 C 89 % 1014,5 hPa 0,0 l/m 0 min 0 min 0 W/m 35,4 km/h (5 Bft) 91,30 %
07.12.2019 22:48 8,8 C 8,3 C 7,8 C 89 % 1014,4 hPa 0,0 l/m 0 min 0 min 0 W/m 29,0 km/h (5 Bft) 95,74 %
07.12.2019 22:50 8,8 C 8,3 C 7,8 C 89 % 1014,4 hPa 0,0 l/m 0 min 0 min 0 W/m 19,3 km/h (3 Bft) 91,49 %
07.12.2019 22:52 8,8 C 8,3 C 7,8 C 89 % 1014,4 hPa 0,0 l/m 0 min 0 min 0 W/m 22,5 km/h (4 Bft) 93,62 %
07.12.2019 22:54 8,8 C 8,3 C 7,8 C 89 % 1014,3 hPa 0,0 l/m 0 min 0 min 0 W/m 19,3 km/h (3 Bft) 95,74 %
07.12.2019 22:56 8,8 C 8,3 C 7,8 C 89 % 1014,2 hPa 0,0 l/m 0 min 0 min 0 W/m 25,7 km/h (4 Bft) 97,87 %
07.12.2019 22:58 8,8 C 8,3 C 7,8 C 89 % 1014,2 hPa 0,0 l/m 0 min 0 min 0 W/m 22,5 km/h (4 Bft) 95,65 %
07.12.2019 23:00 8,8 C 8,3 C 7,8 C 89 % 1014,1 hPa 0,0 l/m 0 min 0 min 0 W/m 19,3 km/h (3 Bft) 95,74 %
07.12.2019 23:02 8,8 C 8,3 C 7,8 C 89 % 1014,0 hPa 0,0 l/m 0 min 0 min 0 W/m 16,1 km/h (3 Bft) 93,62 %
07.12.2019 23:04 8,8 C 8,3 C 7,8 C 89 % 1013,9 hPa 0,0 l/m 0 min 0 min 0 W/m 22,5 km/h (4 Bft) 97,87 %
07.12.2019 23:06 8,9 C 8,3 C 7,8 C 89 % 1013,9 hPa 0,0 l/m 0 min 0 min 0 W/m 19,3 km/h (3 Bft) 93,62 %
07.12.2019 23:08 8,9 C 8,3 C 7,8 C 89 % 1013,8 hPa 0,0 l/m 0 min 0 min 0 W/m 22,5 km/h (4 Bft) 95,74 %
07.12.2019 23:10 8,8 C 8,3 C 7,8 C 89 % 1013,8 hPa 0,0 l/m 0 min 0 min 0 W/m 19,3 km/h (3 Bft) 97,83 %
07.12.2019 23:12 8,8 C 8,3 C 7,8 C 88 % 1013,8 hPa 0,0 l/m 0 min 0 min 0 W/m 16,1 km/h (3 Bft) 97,87 %
07.12.2019 23:14 8,9 C 8,3 C 7,8 C 88 % 1013,7 hPa 0,0 l/m 0 min 0 min 0 W/m 22,5 km/h (4 Bft) 97,87 %
07.12.2019 23:16 8,8 C 8,3 C 7,8 C 88 % 1013,8 hPa 0,0 l/m 0 min 0 min 0 W/m 19,3 km/h (3 Bft) 95,74 %
07.12.2019 23:18 8,8 C 8,3 C 7,8 C 88 % 1013,9 hPa 0,0 l/m 0 min 0 min 0 W/m 19,3 km/h (3 Bft) 97,87 %
07.12.2019 23:20 8,8 C 8,3 C 7,8 C 88 % 1013,8 hPa 0,0 l/m 0 min 0 min 0 W/m 19,3 km/h (3 Bft) 97,83 %
07.12.2019 23:22 8,8 C 8,3 C 7,8 C 88 % 1013,7 hPa 0,0 l/m 0 min 0 min 0 W/m 32,2 km/h (5 Bft) 97,87 %
07.12.2019 23:24 8,8 C 8,3 C 7,8 C 88 % 1013,7 hPa 0,0 l/m 0 min 0 min 0 W/m 19,3 km/h (3 Bft) 95,74 %
07.12.2019 23:26 8,8 C 8,3 C 7,8 C 88 % 1013,6 hPa 0,0 l/m 0 min 0 min 0 W/m 25,7 km/h (4 Bft) 100,00 %
07.12.2019 23:28 8,8 C 8,3 C 7,8 C 88 % 1013,7 hPa 0,0 l/m 0 min 0 min 0 W/m 25,7 km/h (4 Bft) 97,87 %
07.12.2019 23:30 8,8 C 8,3 C 7,8 C 88 % 1013,7 hPa 0,0 l/m 0 min 0 min 0 W/m 19,3 km/h (3 Bft) 100,00 %
07.12.2019 23:32 8,8 C 8,3 C 7,8 C 88 % 1013,7 hPa 0,0 l/m 0 min 0 min 0 W/m 22,5 km/h (4 Bft) 100,00 %
07.12.2019 23:34 8,8 C 8,3 C 7,8 C 88 % 1013,7 hPa 0,0 l/m 0 min 0 min 0 W/m 22,5 km/h (4 Bft) 100,00 %
07.12.2019 23:36 8,8 C 8,3 C 7,8 C 88 % 1013,7 hPa 0,0 l/m 0 min 0 min 0 W/m 16,1 km/h (3 Bft) 100,00 %
07.12.2019 23:38 8,8 C 8,3 C 7,8 C 87 % 1013,6 hPa 0,0 l/m 0 min 0 min 0 W/m 29,0 km/h (5 Bft) 97,87 %
07.12.2019 23:40 8,8 C 8,3 C 7,8 C 87 % 1013,7 hPa 0,0 l/m 0 min 0 min 0 W/m 25,7 km/h (4 Bft) 97,87 %
07.12.2019 23:42 8,8 C 8,3 C 7,8 C 87 % 1013,7 hPa 0,0 l/m 0 min 0 min 0 W/m 35,4 km/h (5 Bft) 97,87 %
07.12.2019 23:44 8,9 C 8,3 C 7,8 C 87 % 1013,7 hPa 0,0 l/m 0 min 0 min 0 W/m 19,3 km/h (3 Bft) 100,00 %
07.12.2019 23:46 8,9 C 8,3 C 7,8 C 87 % 1013,7 hPa 0,0 l/m 0 min 0 min 0 W/m 25,7 km/h (4 Bft) 100,00 %
07.12.2019 23:48 8,9 C 8,3 C 7,8 C 87 % 1013,6 hPa 0,0 l/m 0 min 0 min 0 W/m 19,3 km/h (3 Bft) 100,00 %
07.12.2019 23:50 8,9 C 8,3 C 7,8 C 86 % 1013,6 hPa 0,0 l/m 0 min 0 min 0 W/m 19,3 km/h (3 Bft) 100,00 %
07.12.2019 23:52 8,9 C 8,3 C 7,8 C 86 % 1013,6 hPa 0,0 l/m 0 min 0 min 0 W/m 19,3 km/h (3 Bft) 100,00 %
07.12.2019 23:54 8,9 C 8,3 C 7,8 C 86 % 1013,7 hPa 0,0 l/m 0 min 0 min 0 W/m 22,5 km/h (4 Bft) 100,00 %
07.12.2019 23:56 8,9 C 8,3 C 7,8 C 86 % 1013,6 hPa 0,0 l/m 0 min 0 min 0 W/m 12,9 km/h (3 Bft) 100,00 %
07.12.2019 23:58 8,9 C 8,3 C 7,8 C 86 % 1013,6 hPa 0,0 l/m 0 min 0 min 0 W/m 19,3 km/h (3 Bft) 95,74 %
_ Min-Zeit 08:32 07:26 07:30 19:24 00:08 - - - - 04:58 10:00
Minimum _ 7,8 C 6,7 C 6,1 C 84 % 1006,0 hPa - - - - 6,4 km/h (2 Bft) 47,37 %
_ Max-Zeit 14:18 13:16 14:16 04:24 18:52 00:32 14:12 00:08 14:14 00:00 01:02
Maximum _ 9,8 C 10,0 C 9,4 C 99 % 1015,7 hPa 0,2 l/m 2 min 4 min 146 W/m 45,1 km/h
SO (6 Bft)
100,00 %
Durchschnitt _ 8,7 C 7,9 C 7,4 C 93 % 1012,5 hPa #3,0 l/m #12 min. #4:50 h 55 W/m 16,4 km/h (3 Bft) 97,31 %
© 2019 W. Hausmann